Time,TemperatureF,DewpointF,PressureIn,WindDirection,WindDirectionDegrees,WindSpeedMPH,WindSpeedGustMPH,Humidity,HourlyPrecipIn,Conditions,Clouds,dailyrainin,SoftwareType,DateUTC
2013-04-21 00:01:00,61.3,43.5,30.05,SSE,167,0.0,0.0,52,0.00,SCT,,0.00,WeatherDisplay:10.37,2013-04-21 07:01:00,
2013-04-21 00:02:00,61.2,43.4,30.05,SSE,167,0.0,0.0,52,0.00,SCT,,0.00,WeatherDisplay:10.37,2013-04-21 07:02:00,
2013-04-21 00:04:00,61.1,43.3,30.06,SSE,167,0.0,0.0,52,0.00,SCT,,0.00,WeatherDisplay:10.37,2013-04-21 07:04:00,
2013-04-21 00:06:00,61.0,43.2,30.05,SSE,167,0.0,0.0,52,0.00,SCT,,0.00,WeatherDisplay:10.37,2013-04-21 07:06:00,
2013-04-21 00:07:00,61.0,43.2,30.05,SSE,167,0.0,0.0,52,0.00,SCT,,0.00,WeatherDisplay:10.37,2013-04-21 07:07:00,
2013-04-21 00:10:00,60.9,43.1,30.05,SSE,167,0.0,1.0,52,0.00,SCT,,0.00,WeatherDisplay:10.37,2013-04-21 07:10:00,
2013-04-21 00:12:00,60.7,43.0,30.05,SSE,167,0.0,0.0,52,0.00,SCT,,0.00,WeatherDisplay:10.37,2013-04-21 07:12:00,
2013-04-21 00:13:00,60.7,43.0,30.05,SSE,167,0.0,0.0,52,0.00,SCT,,0.00,WeatherDisplay:10.37,2013-04-21 07:13:00,
2013-04-21 00:15:00,60.7,43.0,30.05,SSE,167,0.0,0.0,52,0.00,SCT,,0.00,WeatherDisplay:10.37,2013-04-21 07:15:00,
2013-04-21 00:17:00,60.6,42.9,30.05,SSE,167,0.0,0.0,52,0.00,SCT,,0.00,WeatherDisplay:10.37,2013-04-21 07:17:00,
2013-04-21 00:18:00,60.6,42.9,30.05,SSE,167,0.0,0.0,52,0.00,SCT,,0.00,WeatherDisplay:10.37,2013-04-21 07:18:00,
2013-04-21 00:20:00,60.4,42.7,30.05,SSE,167,0.0,0.0,52,0.00,SCT,,0.00,WeatherDisplay:10.37,2013-04-21 07:20:00,
2013-04-21 00:22:00,60.3,42.6,30.05,SSE,167,0.0,0.0,52,0.00,SCT,,0.00,WeatherDisplay:10.37,2013-04-21 07:22:00,
2013-04-21 00:23:00,60.3,42.6,30.05,SSE,167,0.0,0.0,52,0.00,SCT,,0.00,WeatherDisplay:10.37,2013-04-21 07:23:00,
2013-04-21 00:24:00,60.3,42.6,30.05,SSE,167,0.0,0.0,52,0.00,SCT,,0.00,WeatherDisplay:10.37,2013-04-21 07:24:00,
2013-04-21 00:25:00,60.3,42.6,30.05,SSE,167,0.0,0.0,52,0.00,SCT,,0.00,WeatherDisplay:10.37,2013-04-21 07:25:00,
2013-04-21 00:28:00,60.2,42.5,30.05,SSE,167,1.2,0.0,52,0.00,SCT,,0.00,WeatherDisplay:10.37,2013-04-21 07:28:00,
2013-04-21 00:29:00,60.1,42.4,30.05,SSE,167,0.0,0.0,52,0.00,SCT,,0.00,WeatherDisplay:10.37,2013-04-21 07:29:00,
2013-04-21 00:31:00,60.1,42.4,30.05,SSE,167,0.0,0.0,52,0.00,SCT,,0.00,WeatherDisplay:10.37,2013-04-21 07:31:00,
2013-04-21 00:34:00,60.2,42.5,30.05,SSE,167,0.0,0.0,52,0.00,SCT,,0.00,WeatherDisplay:10.37,2013-04-21 07:34:00,
2013-04-21 00:35:00,60.2,42.5,30.05,SSE,167,0.0,0.0,52,0.00,SCT,,0.00,WeatherDisplay:10.37,2013-04-21 07:35:00,
2013-04-21 00:36:00,60.2,42.5,30.05,SSE,167,0.0,0.0,52,0.00,SCT,,0.00,WeatherDisplay:10.37,2013-04-21 07:36:00,
2013-04-21 00:37:00,60.2,42.5,30.05,SSE,167,0.0,0.0,52,0.00,SCT,,0.00,WeatherDisplay:10.37,2013-04-21 07:37:00,
2013-04-21 00:40:00,60.1,42.4,30.05,SSE,167,0.0,0.0,52,0.00,SCT,,0.00,WeatherDisplay:10.37,2013-04-21 07:40:00,
2013-04-21 00:42:00,60.1,42.4,30.05,SSE,167,0.0,0.0,52,0.00,SCT,,0.00,WeatherDisplay:10.37,2013-04-21 07:42:00,
2013-04-21 00:43:00,60.1,42.4,30.05,SSE,167,0.0,0.0,52,0.00,SCT,,0.00,WeatherDisplay:10.37,2013-04-21 07:43:00,
2013-04-21 00:45:00,60.1,42.4,30.05,SSE,167,0.0,0.0,52,0.00,SCT,,0.00,WeatherDisplay:10.37,2013-04-21 07:45:00,
2013-04-21 00:46:00,60.1,42.4,30.05,SSE,167,0.0,0.0,52,0.00,SCT,,0.00,WeatherDisplay:10.37,2013-04-21 07:46:00,
2013-04-21 00:47:00,60.0,42.3,30.05,SSE,167,0.0,0.0,52,0.00,SCT,,0.00,WeatherDisplay:10.37,2013-04-21 07:47:00,
2013-04-21 00:49:00,59.9,42.2,30.04,SSE,167,0.0,0.0,52,0.00,SCT,,0.00,WeatherDisplay:10.37,2013-04-21 07:49:00,
2013-04-21 00:50:00,59.8,42.1,30.05,SSE,167,0.0,0.0,52,0.00,SCT,,0.00,WeatherDisplay:10.37,2013-04-21 07:50:00,
2013-04-21 00:51:00,59.8,42.1,30.05,SSE,167,0.0,0.0,52,0.00,SCT,,0.00,WeatherDisplay:10.37,2013-04-21 07:51:00,
2013-04-21 00:52:00,59.7,42.0,30.05,SSE,167,0.0,0.0,52,0.00,SCT,,0.00,WeatherDisplay:10.37,2013-04-21 07:52:00,
2013-04-21 00:54:00,59.7,42.0,30.05,SSE,167,0.0,0.0,52,0.00,SCT,,0.00,WeatherDisplay:10.37,2013-04-21 07:54:00,
2013-04-21 00:55:00,59.7,42.0,30.05,SSE,167,0.0,0.0,52,0.00,SCT,,0.00,WeatherDisplay:10.37,2013-04-21 07:55:00,
2013-04-21 00:56:00,59.6,41.9,30.05,SSE,167,0.0,0.0,52,0.00,SCT,,0.00,WeatherDisplay:10.37,2013-04-21 07:56:00,
2013-04-21 00:57:00,59.6,41.9,30.05,SSE,167,0.0,0.0,52,0.00,SCT,,0.00,WeatherDisplay:10.37,2013-04-21 07:57:00,
2013-04-21 01:00:00,59.5,41.9,30.05,SSE,167,0.0,0.0,52,0.00,SCT,,0.00,WeatherDisplay:10.37,2013-04-21 08:00:00,
2013-04-21 01:01:00,59.4,42.3,30.05,SSE,167,0.0,0.0,53,0.00,SCT,,0.00,WeatherDisplay:10.37,2013-04-21 08:01:00,
2013-04-21 01:02:00,59.3,41.7,30.05,SSE,167,0.0,0.0,52,0.00,SCT,,0.00,WeatherDisplay:10.37,2013-04-21 08:02:00,
2013-04-21 01:03:00,59.3,42.2,30.05,SSE,167,0.0,0.0,53,0.00,SCT,,0.00,WeatherDisplay:10.37,2013-04-21 08:03:00,
2013-04-21 01:05:00,59.2,42.1,30.05,SSE,167,0.0,0.0,53,0.00,SCT,,0.00,WeatherDisplay:10.37,2013-04-21 08:05:00,
2013-04-21 01:07:00,59.1,42.0,30.05,SSE,167,0.0,0.0,53,0.00,SCT,,0.00,WeatherDisplay:10.37,2013-04-21 08:07:00,
2013-04-21 01:08:00,59.2,41.6,30.05,SSE,167,0.0,0.0,52,0.00,SCT,,0.00,WeatherDisplay:10.37,2013-04-21 08:08:00,
2013-04-21 01:09:00,59.2,41.6,30.05,SSE,167,0.0,0.0,52,0.00,SCT,,0.00,WeatherDisplay:10.37,2013-04-21 08:09:00,
2013-04-21 01:10:00,59.2,41.6,30.05,SSE,167,0.0,0.0,52,0.00,SCT,,0.00,WeatherDisplay:10.37,2013-04-21 08:10:00,
2013-04-21 01:11:00,59.2,41.6,30.05,SSE,167,0.0,0.0,52,0.00,SCT,,0.00,WeatherDisplay:10.37,2013-04-21 08:11:00,
2013-04-21 01:12:00,59.2,42.1,30.05,SSE,167,0.0,0.0,53,0.00,SCT,,0.00,WeatherDisplay:10.37,2013-04-21 08:12:00,
2013-04-21 01:15:00,59.0,41.9,30.05,SSE,167,0.0,0.0,53,0.00,SCT,,0.00,WeatherDisplay:10.37,2013-04-21 08:15:00,
2013-04-21 01:16:00,59.0,41.4,30.05,SSE,167,0.0,0.0,52,0.00,SCT,,0.00,WeatherDisplay:10.37,2013-04-21 08:16:00,
2013-04-21 01:17:00,58.9,41.8,30.05,SSE,167,0.0,0.0,53,0.00,SCT,,0.00,WeatherDisplay:10.37,2013-04-21 08:17:00,
2013-04-21 01:20:00,58.9,41.8,30.05,SSE,167,0.0,0.0,53,0.00,SCT,,0.00,WeatherDisplay:10.37,2013-04-21 08:20:00,
2013-04-21 01:21:00,58.9,41.8,30.05,SSE,167,0.0,0.0,53,0.00,SCT,,0.00,WeatherDisplay:10.37,2013-04-21 08:21:00,
2013-04-21 01:22:00,58.9,41.8,30.05,SSE,167,0.0,0.0,53,0.00,SCT,,0.00,WeatherDisplay:10.37,2013-04-21 08:22:00,
2013-04-21 01:23:00,58.9,41.8,30.05,SSE,167,0.0,0.0,53,0.00,SCT,,0.00,WeatherDisplay:10.37,2013-04-21 08:23:00,
2013-04-21 01:26:00,58.8,41.7,30.05,SSE,167,0.0,0.0,53,0.00,SCT,,0.00,WeatherDisplay:10.37,2013-04-21 08:26:00,
2013-04-21 01:27:00,58.8,41.7,30.04,SSE,167,0.0,0.0,53,0.00,SCT,,0.00,WeatherDisplay:10.37,2013-04-21 08:27:00,
2013-04-21 01:28:00,58.8,41.7,30.05,SSE,167,0.0,0.0,53,0.00,SCT,,0.00,WeatherDisplay:10.37,2013-04-21 08:28:00,
2013-04-21 01:31:00,58.6,41.5,30.05,SSE,167,0.0,0.0,53,0.00,SCT,,0.00,WeatherDisplay:10.37,2013-04-21 08:31:00,
2013-04-21 01:32:00,58.6,41.5,30.05,SSE,167,0.0,0.0,53,0.00,SCT,,0.00,WeatherDisplay:10.37,2013-04-21 08:32:00,
2013-04-21 01:33:00,58.6,41.5,30.04,SSE,167,0.0,0.0,53,0.00,SCT,,0.00,WeatherDisplay:10.37,2013-04-21 08:33:00,
2013-04-21 01:34:00,58.6,41.5,30.04,SSE,167,0.0,0.0,53,0.00,SCT,,0.00,WeatherDisplay:10.37,2013-04-21 08:34:00,
2013-04-21 01:37:00,58.4,40.8,30.04,SSE,167,0.0,0.0,52,0.00,SCT,,0.00,WeatherDisplay:10.37,2013-04-21 08:37:00,
2013-04-21 01:38:00,58.4,41.3,30.04,SSE,167,0.0,0.0,53,0.00,SCT,,0.00,WeatherDisplay:10.37,2013-04-21 08:38:00,
2013-04-21 01:39:00,58.3,41.2,30.04,SSE,167,0.0,0.0,53,0.00,SCT,,0.00,WeatherDisplay:10.37,2013-04-21 08:39:00,
2013-04-21 01:40:00,58.3,41.2,30.04,SSE,167,0.0,0.0,53,0.00,SCT,,0.00,WeatherDisplay:10.37,2013-04-21 08:40:00,
2013-04-21 01:42:00,58.2,41.1,30.04,SSE,167,0.0,0.0,53,0.00,SCT,,0.00,WeatherDisplay:10.37,2013-04-21 08:42:00,
2013-04-21 01:44:00,58.1,41.0,30.04,SSE,167,0.0,0.0,53,0.00,SCT,,0.00,WeatherDisplay:10.37,2013-04-21 08:44:00,
2013-04-21 01:45:00,58.1,41.0,30.04,SSE,167,0.0,0.0,53,0.00,SCT,,0.00,WeatherDisplay:10.37,2013-04-21 08:45:00,
2013-04-21 01:46:00,58.1,41.0,30.04,SSE,167,0.0,0.0,53,0.00,SCT,,0.00,WeatherDisplay:10.37,2013-04-21 08:46:00,
2013-04-21 01:48:00,58.1,41.0,30.04,SSE,167,0.0,0.0,53,0.00,SCT,,0.00,WeatherDisplay:10.37,2013-04-21 08:48:00,
2013-04-21 01:49:00,58.1,41.0,30.04,SSE,167,0.0,0.0,53,0.00,SCT,,0.00,WeatherDisplay:10.37,2013-04-21 08:49:00,
2013-04-21 01:50:00,58.1,41.0,30.04,SSE,167,0.0,0.0,53,0.00,SCT,,0.00,WeatherDisplay:10.37,2013-04-21 08:50:00,
2013-04-21 01:52:00,58.0,41.0,30.04,SSE,167,0.0,0.0,53,0.00,SCT,,0.00,WeatherDisplay:10.37,2013-04-21 08:52:00,
2013-04-21 01:53:00,58.0,41.0,30.05,SSE,167,0.0,0.0,53,0.00,SCT,,0.00,WeatherDisplay:10.37,2013-04-21 08:53:00,
2013-04-21 01:54:00,57.9,40.9,30.04,SSE,167,0.0,0.0,53,0.00,SCT,,0.00,WeatherDisplay:10.37,2013-04-21 08:54:00,
2013-04-21 01:55:00,57.9,40.9,30.04,SSE,167,0.0,0.0,53,0.00,SCT,,0.00,WeatherDisplay:10.37,2013-04-21 08:55:00,
2013-04-21 01:56:00,58.0,41.0,30.04,SSE,167,0.0,0.0,53,0.00,SCT,,0.00,WeatherDisplay:10.37,2013-04-21 08:56:00,
2013-04-21 01:57:00,57.9,40.9,30.04,SSE,167,0.0,0.0,53,0.00,SCT,,0.00,WeatherDisplay:10.37,2013-04-21 08:57:00,
2013-04-21 01:58:00,57.9,40.9,30.04,SSE,167,0.0,0.0,53,0.00,SCT,,0.00,WeatherDisplay:10.37,2013-04-21 08:58:00,
2013-04-21 02:00:00,57.9,40.9,30.04,SSE,167,0.0,0.0,53,0.00,SCT,,0.00,WeatherDisplay:10.37,2013-04-21 09:00:00,
2013-04-21 02:01:00,57.8,40.8,30.04,SSE,167,0.0,0.0,53,0.00,SCT,,0.00,WeatherDisplay:10.37,2013-04-21 09:01:00,
2013-04-21 02:02:00,57.8,40.8,30.04,SSE,167,0.0,0.0,53,0.00,SCT,,0.00,WeatherDisplay:10.37,2013-04-21 09:02:00,
2013-04-21 02:03:00,57.8,40.8,30.04,SSE,167,0.0,0.0,53,0.00,SCT,,0.00,WeatherDisplay:10.37,2013-04-21 09:03:00,
2013-04-21 02:04:00,57.8,40.8,30.04,SSE,167,0.0,0.0,53,0.00,SCT,,0.00,WeatherDisplay:10.37,2013-04-21 09:04:00,
2013-04-21 02:06:00,57.6,40.6,30.04,SSE,167,0.0,0.0,53,0.00,SCT,,0.00,WeatherDisplay:10.37,2013-04-21 09:06:00,
2013-04-21 02:07:00,57.6,41.1,30.04,SSE,167,0.0,0.0,54,0.00,SCT,,0.00,WeatherDisplay:10.37,2013-04-21 09:07:00,
2013-04-21 02:08:00,57.5,41.0,30.04,SSE,167,0.0,0.0,54,0.00,SCT,,0.00,WeatherDisplay:10.37,2013-04-21 09:08:00,
2013-04-21 02:09:00,57.5,41.0,30.04,SSE,167,0.0,0.0,54,0.00,SCT,,0.00,WeatherDisplay:10.37,2013-04-21 09:09:00,
2013-04-21 02:10:00,57.5,41.0,30.04,SSE,167,0.0,0.0,54,0.00,SCT,,0.00,WeatherDisplay:10.37,2013-04-21 09:10:00,
2013-04-21 02:11:00,57.5,41.0,30.04,SSE,167,0.0,0.0,54,0.00,SCT,,0.00,WeatherDisplay:10.37,2013-04-21 09:11:00,
2013-04-21 02:12:00,57.5,41.0,30.04,SSE,167,0.0,0.0,54,0.00,SCT,,0.00,WeatherDisplay:10.37,2013-04-21 09:12:00,
2013-04-21 02:14:00,57.5,41.0,30.04,SSE,167,0.0,0.0,54,0.00,SCT,,0.00,WeatherDisplay:10.37,2013-04-21 09:14:00,
2013-04-21 02:15:00,57.5,41.0,30.04,SSE,167,0.0,0.0,54,0.00,SCT,,0.00,WeatherDisplay:10.37,2013-04-21 09:15:00,
2013-04-21 02:16:00,57.4,40.9,30.04,SSE,167,0.0,0.0,54,0.00,SCT,,0.00,WeatherDisplay:10.37,2013-04-21 09:16:00,
2013-04-21 02:17:00,57.4,40.9,30.04,SSE,167,0.0,0.0,54,0.00,SCT,,0.00,WeatherDisplay:10.37,2013-04-21 09:17:00,
2013-04-21 02:19:00,57.3,40.8,30.04,SSE,167,0.0,0.0,54,0.00,SCT,,0.00,WeatherDisplay:10.37,2013-04-21 09:19:00,
2013-04-21 02:20:00,57.2,41.2,30.04,SSE,167,0.0,0.0,55,0.00,SCT,,0.00,WeatherDisplay:10.37,2013-04-21 09:20:00,
2013-04-21 02:21:00,57.1,40.6,30.04,SSE,167,0.0,0.0,54,0.00,SCT,,0.00,WeatherDisplay:10.37,2013-04-21 09:21:00,
2013-04-21 02:23:00,57.0,41.0,30.04,SSE,167,0.0,0.0,55,0.00,SCT,,0.00,WeatherDisplay:10.37,2013-04-21 09:23:00,
2013-04-21 02:25:00,56.9,40.9,30.04,SSE,167,0.0,0.0,55,0.00,SCT,,0.00,WeatherDisplay:10.37,2013-04-21 09:25:00,
2013-04-21 02:26:00,56.9,40.9,30.04,SSE,167,0.0,0.0,55,0.00,SCT,,0.00,WeatherDisplay:10.37,2013-04-21 09:26:00,
2013-04-21 02:27:00,56.9,40.9,30.04,SSE,167,0.0,0.0,55,0.00,SCT,,0.00,WeatherDisplay:10.37,2013-04-21 09:27:00,
2013-04-21 02:29:00,57.0,41.0,30.04,SSE,167,0.0,0.0,55,0.00,SCT,,0.00,WeatherDisplay:10.37,2013-04-21 09:29:00,
2013-04-21 02:30:00,56.9,40.9,30.04,SSE,167,0.0,0.0,55,0.00,SCT,,0.00,WeatherDisplay:10.37,2013-04-21 09:30:00,
2013-04-21 02:31:00,56.9,40.9,30.04,SSE,167,0.0,0.0,55,0.00,SCT,,0.00,WeatherDisplay:10.37,2013-04-21 09:31:00,
2013-04-21 02:32:00,56.9,40.9,30.04,SSE,167,0.0,0.0,55,0.00,SCT,,0.00,WeatherDisplay:10.37,2013-04-21 09:32:00,
2013-04-21 02:35:00,56.8,40.8,30.03,SSE,167,0.0,0.0,55,0.00,SCT,,0.00,WeatherDisplay:10.37,2013-04-21 09:35:00,
2013-04-21 02:36:00,56.8,40.8,30.03,SSE,167,0.0,0.0,55,0.00,SCT,,0.00,WeatherDisplay:10.37,2013-04-21 09:36:00,
2013-04-21 02:37:00,56.8,40.3,30.04,SSE,167,0.0,0.0,54,0.00,SCT,,0.00,WeatherDisplay:10.37,2013-04-21 09:37:00,
2013-04-21 02:40:00,56.8,40.8,30.03,SSE,167,0.0,0.0,55,0.00,SCT,,0.00,WeatherDisplay:10.37,2013-04-21 09:40:00,
2013-04-21 02:41:00,56.8,40.8,30.03,SSE,167,0.0,0.0,55,0.00,SCT,,0.00,WeatherDisplay:10.37,2013-04-21 09:41:00,
2013-04-21 02:42:00,56.8,40.8,30.03,SSE,167,0.0,0.0,55,0.00,SCT,,0.00,WeatherDisplay:10.37,2013-04-21 09:42:00,
2013-04-21 02:44:00,56.7,40.2,30.03,SSE,167,0.0,0.0,54,0.00,SCT,,0.00,WeatherDisplay:10.37,2013-04-21 09:44:00,
2013-04-21 02:46:00,56.7,40.7,30.04,SSE,167,0.0,0.0,55,0.00,SCT,,0.00,WeatherDisplay:10.37,2013-04-21 09:46:00,
2013-04-21 02:47:00,56.7,40.7,30.03,SSE,167,0.0,0.0,55,0.00,SCT,,0.00,WeatherDisplay:10.37,2013-04-21 09:47:00,
2013-04-21 02:50:00,56.6,40.6,30.03,SSE,167,0.0,0.0,55,0.00,SCT,,0.00,WeatherDisplay:10.37,2013-04-21 09:50:00,
2013-04-21 02:51:00,56.6,40.6,30.03,SSE,167,0.0,0.0,55,0.00,SCT,,0.00,WeatherDisplay:10.37,2013-04-21 09:51:00,
2013-04-21 02:52:00,56.4,40.4,30.04,SSE,167,0.0,0.0,55,0.00,SCT,,0.00,WeatherDisplay:10.37,2013-04-21 09:52:00,
2013-04-21 02:53:00,56.5,40.5,30.04,SSE,167,0.0,0.0,55,0.00,SCT,,0.00,WeatherDisplay:10.37,2013-04-21 09:53:00,
2013-04-21 02:55:00,56.2,40.2,30.03,SSE,167,0.0,0.0,55,0.00,SCT,,0.00,WeatherDisplay:10.37,2013-04-21 09:55:00,
2013-04-21 02:56:00,56.2,40.2,30.03,SSE,167,0.0,0.0,55,0.00,SCT,,0.00,WeatherDisplay:10.37,2013-04-21 09:56:00,
2013-04-21 02:57:00,56.2,40.2,30.03,SSE,167,0.0,0.0,55,0.00,SCT,,0.00,WeatherDisplay:10.37,2013-04-21 09:57:00,
2013-04-21 02:58:00,56.2,40.2,30.03,SSE,167,0.0,0.0,55,0.00,SCT,,0.00,WeatherDisplay:10.37,2013-04-21 09:58:00,
2013-04-21 03:01:00,56.0,40.5,30.03,SSE,167,0.0,0.0,56,0.00,SCT,,0.00,WeatherDisplay:10.37,2013-04-21 10:01:00,
2013-04-21 03:02:00,56.0,40.1,30.03,SSE,167,0.0,0.0,55,0.00,SCT,,0.00,WeatherDisplay:10.37,2013-04-21 10:02:00,
2013-04-21 03:03:00,56.0,40.5,30.03,SSE,167,0.0,0.0,56,0.00,SCT,,0.00,WeatherDisplay:10.37,2013-04-21 10:03:00,
2013-04-21 03:04:00,55.9,40.4,30.03,SSE,167,0.0,0.0,56,0.00,SCT,,0.00,WeatherDisplay:10.37,2013-04-21 10:04:00,
2013-04-21 03:06:00,55.8,40.3,30.03,SSE,167,0.0,0.0,56,0.00,SCT,,0.00,WeatherDisplay:10.37,2013-04-21 10:06:00,
2013-04-21 03:07:00,55.8,39.9,30.03,SSE,167,0.0,0.0,55,0.00,SCT,,0.00,WeatherDisplay:10.37,2013-04-21 10:07:00,
2013-04-21 03:09:00,55.8,40.3,30.03,SSE,167,0.0,0.0,56,0.00,SCT,,0.00,WeatherDisplay:10.37,2013-04-21 10:09:00,
2013-04-21 03:10:00,55.8,40.3,30.03,SSE,167,0.0,0.0,56,0.00,SCT,,0.00,WeatherDisplay:10.37,2013-04-21 10:10:00,
2013-04-21 03:11:00,55.8,40.3,30.03,SSE,167,0.0,0.0,56,0.00,SCT,,0.00,WeatherDisplay:10.37,2013-04-21 10:11:00,
2013-04-21 03:13:00,55.8,40.3,30.03,SSE,167,0.0,0.0,56,0.00,SCT,,0.00,WeatherDisplay:10.37,2013-04-21 10:13:00,
2013-04-21 03:14:00,55.8,40.3,30.03,SSE,167,0.0,0.0,56,0.00,SCT,,0.00,WeatherDisplay:10.37,2013-04-21 10:14:00,
2013-04-21 03:16:00,55.8,40.3,30.02,SSE,167,0.0,0.0,56,0.00,SCT,,0.00,WeatherDisplay:10.37,2013-04-21 10:16:00,
2013-04-21 03:18:00,55.8,40.3,30.02,SSE,167,0.0,0.0,56,0.00,SCT,,0.00,WeatherDisplay:10.37,2013-04-21 10:18:00,
2013-04-21 03:19:00,55.6,40.1,30.02,SSE,167,0.0,0.0,56,0.00,SCT,,0.00,WeatherDisplay:10.37,2013-04-21 10:19:00,
2013-04-21 03:20:00,55.6,40.1,30.02,SSE,167,0.0,0.0,56,0.00,SCT,,0.00,WeatherDisplay:10.37,2013-04-21 10:20:00,
2013-04-21 03:21:00,55.5,40.0,30.02,SSE,167,0.0,0.0,56,0.00,SCT,,0.00,WeatherDisplay:10.37,2013-04-21 10:21:00,
2013-04-21 03:22:00,55.5,40.0,30.02,SSE,167,0.0,0.0,56,0.00,SCT,,0.00,WeatherDisplay:10.37,2013-04-21 10:22:00,
2013-04-21 03:23:00,55.5,40.0,30.02,SSE,167,0.0,0.0,56,0.00,SCT,,0.00,WeatherDisplay:10.37,2013-04-21 10:23:00,
2013-04-21 03:25:00,55.5,40.0,30.02,SSE,167,0.0,0.0,56,0.00,SCT,,0.00,WeatherDisplay:10.37,2013-04-21 10:25:00,
2013-04-21 03:27:00,55.4,40.0,30.02,SSE,167,0.0,0.0,56,0.00,SCT,,0.00,WeatherDisplay:10.37,2013-04-21 10:27:00,
2013-04-21 03:29:00,55.4,40.0,30.02,SSE,167,0.0,0.0,56,0.00,SCT,,0.00,WeatherDisplay:10.37,2013-04-21 10:29:00,
2013-04-21 03:30:00,55.4,39.9,30.02,SSE,167,0.0,0.0,56,0.00,SCT,,0.00,WeatherDisplay:10.37,2013-04-21 10:30:00,
2013-04-21 03:32:00,55.3,39.9,30.02,SSE,167,0.0,0.0,56,0.00,SCT,,0.00,WeatherDisplay:10.37,2013-04-21 10:32:00,
2013-04-21 03:33:00,55.3,39.9,30.02,SSE,167,0.0,0.0,56,0.00,SCT,,0.00,WeatherDisplay:10.37,2013-04-21 10:33:00,
2013-04-21 03:34:00,55.3,39.9,30.02,SSE,167,0.0,0.0,56,0.00,SCT,,0.00,WeatherDisplay:10.37,2013-04-21 10:34:00,
2013-04-21 03:35:00,55.2,39.8,30.02,SSE,167,0.0,0.0,56,0.00,SCT,,0.00,WeatherDisplay:10.37,2013-04-21 10:35:00,
2013-04-21 03:38:00,55.2,40.2,30.02,SSE,167,0.0,0.0,57,0.00,SCT,,0.00,WeatherDisplay:10.37,2013-04-21 10:38:00,
2013-04-21 03:40:00,55.1,40.1,30.02,SSE,167,0.0,0.0,57,0.00,SCT,,0.00,WeatherDisplay:10.37,2013-04-21 10:40:00,
2013-04-21 03:42:00,55.0,40.0,30.02,SSE,167,0.0,0.0,57,0.00,SCT,,0.00,WeatherDisplay:10.37,2013-04-21 10:42:00,
2013-04-21 03:43:00,55.0,40.0,30.02,SSE,167,0.0,0.0,57,0.00,SCT,,0.00,WeatherDisplay:10.37,2013-04-21 10:43:00,
2013-04-21 03:44:00,54.9,39.9,30.02,SSE,167,0.0,0.0,57,0.00,SCT,,0.00,WeatherDisplay:10.37,2013-04-21 10:44:00,
2013-04-21 03:45:00,54.9,39.9,30.02,SSE,167,0.0,0.0,57,0.00,SCT,,0.00,WeatherDisplay:10.37,2013-04-21 10:45:00,
2013-04-21 03:46:00,54.9,39.9,30.02,SSE,167,0.0,0.0,57,0.00,SCT,,0.00,WeatherDisplay:10.37,2013-04-21 10:46:00,
2013-04-21 03:48:00,54.8,39.8,30.02,SSE,167,0.0,0.0,57,0.00,SCT,,0.00,WeatherDisplay:10.37,2013-04-21 10:48:00,
2013-04-21 03:49:00,54.8,39.8,30.02,SSE,167,0.0,0.0,57,0.00,SCT,,0.00,WeatherDisplay:10.37,2013-04-21 10:49:00,
2013-04-21 03:50:00,54.8,39.8,30.02,SSE,167,0.0,0.0,57,0.00,SCT,,0.00,WeatherDisplay:10.37,2013-04-21 10:50:00,
2013-04-21 03:51:00,54.8,39.8,30.03,SSE,167,0.0,0.0,57,0.00,SCT,,0.00,WeatherDisplay:10.37,2013-04-21 10:51:00,
2013-04-21 03:52:00,54.8,39.8,30.02,SSE,167,0.0,0.0,57,0.00,SCT,,0.00,WeatherDisplay:10.37,2013-04-21 10:52:00,
2013-04-21 03:53:00,54.8,39.8,30.02,SSE,167,0.0,0.0,57,0.00,SCT,,0.00,WeatherDisplay:10.37,2013-04-21 10:53:00,
2013-04-21 03:54:00,54.8,39.4,30.02,SSE,167,0.0,0.0,56,0.00,SCT,,0.00,WeatherDisplay:10.37,2013-04-21 10:54:00,
2013-04-21 03:55:00,54.8,39.8,30.03,SSE,167,0.0,0.0,57,0.00,SCT,,0.00,WeatherDisplay:10.37,2013-04-21 10:55:00,
2013-04-21 03:57:00,54.9,39.9,30.02,SSE,167,0.0,0.0,57,0.00,SCT,,0.00,WeatherDisplay:10.37,2013-04-21 10:57:00,
2013-04-21 03:59:00,54.9,39.9,30.02,SSE,167,0.0,0.0,57,0.00,SCT,,0.00,WeatherDisplay:10.37,2013-04-21 10:59:00,
2013-04-21 04:00:00,54.8,39.9,30.02,SSE,167,0.0,0.0,57,0.00,SCT,,0.00,WeatherDisplay:10.37,2013-04-21 11:00:00,
2013-04-21 04:03:00,54.7,39.8,30.03,SSE,167,0.0,0.0,57,0.00,SCT,,0.00,WeatherDisplay:10.37,2013-04-21 11:03:00,
2013-04-21 04:04:00,54.7,39.8,30.02,SSE,167,0.0,0.0,57,0.00,SCT,,0.00,WeatherDisplay:10.37,2013-04-21 11:04:00,
2013-04-21 04:05:00,54.7,39.8,30.03,SSE,167,0.0,0.0,57,0.00,SCT,,0.00,WeatherDisplay:10.37,2013-04-21 11:05:00,
2013-04-21 04:06:00,54.7,39.8,30.03,SSE,167,0.0,0.0,57,0.00,SCT,,0.00,WeatherDisplay:10.37,2013-04-21 11:06:00,
2013-04-21 04:08:00,54.7,39.8,30.03,SSE,167,0.0,0.0,57,0.00,SCT,,0.00,WeatherDisplay:10.37,2013-04-21 11:08:00,
2013-04-21 04:09:00,54.7,39.8,30.03,SSE,167,0.0,0.0,57,0.00,SCT,,0.00,WeatherDisplay:10.37,2013-04-21 11:09:00,
2013-04-21 04:11:00,54.7,39.8,30.03,SSE,167,0.0,0.0,57,0.00,SCT,,0.00,WeatherDisplay:10.37,2013-04-21 11:11:00,
2013-04-21 04:13:00,54.7,39.8,30.03,SSE,167,0.0,0.0,57,0.00,SCT,,0.00,WeatherDisplay:10.37,2013-04-21 11:13:00,
2013-04-21 04:14:00,54.6,39.7,30.03,SSE,167,0.0,0.0,57,0.00,SCT,,0.00,WeatherDisplay:10.37,2013-04-21 11:14:00,
2013-04-21 04:15:00,54.6,39.7,30.03,SSE,167,1.2,0.0,57,0.00,SCT,,0.00,WeatherDisplay:10.37,2013-04-21 11:15:00,
2013-04-21 04:16:00,54.6,39.7,30.03,SSE,167,1.2,0.0,57,0.00,SCT,,0.00,WeatherDisplay:10.37,2013-04-21 11:16:00,
2013-04-21 04:18:00,54.5,39.6,30.03,SSE,167,0.0,0.0,57,0.00,SCT,,0.00,WeatherDisplay:10.37,2013-04-21 11:18:00,
2013-04-21 04:20:00,54.4,39.5,30.03,SSE,167,1.0,0.0,57,0.00,SCT,,0.00,WeatherDisplay:10.37,2013-04-21 11:20:00,
2013-04-21 04:21:00,54.4,39.9,30.02,SSE,167,0.0,0.1,58,0.00,SCT,,0.00,WeatherDisplay:10.37,2013-04-21 11:21:00,
2013-04-21 04:22:00,54.4,39.9,30.02,SSE,167,1.2,0.0,58,0.00,SCT,,0.00,WeatherDisplay:10.37,2013-04-21 11:22:00,
2013-04-21 04:23:00,54.3,39.8,30.02,SSE,167,0.0,0.0,58,0.00,SCT,,0.00,WeatherDisplay:10.37,2013-04-21 11:23:00,
2013-04-21 04:24:00,54.3,39.8,30.02,SSE,167,0.0,0.0,58,0.00,SCT,,0.00,WeatherDisplay:10.37,2013-04-21 11:24:00,
2013-04-21 04:26:00,54.2,39.7,30.02,SSE,167,0.0,0.0,58,0.00,SCT,,0.00,WeatherDisplay:10.37,2013-04-21 11:26:00,
2013-04-21 04:27:00,54.2,39.7,30.02,SSE,167,0.0,0.0,58,0.00,SCT,,0.00,WeatherDisplay:10.37,2013-04-21 11:27:00,
2013-04-21 04:28:00,54.2,39.7,30.02,SSE,167,0.0,0.0,58,0.00,SCT,,0.00,WeatherDisplay:10.37,2013-04-21 11:28:00,
2013-04-21 04:29:00,54.2,39.7,30.02,SSE,167,0.0,0.0,58,0.00,SCT,,0.00,WeatherDisplay:10.37,2013-04-21 11:29:00,
2013-04-21 04:30:00,54.2,39.7,30.02,SSE,167,0.0,0.0,58,0.00,SCT,,0.00,WeatherDisplay:10.37,2013-04-21 11:30:00,
2013-04-21 04:31:00,54.1,39.6,30.02,SSE,167,0.0,0.0,58,0.00,SCT,,0.00,WeatherDisplay:10.37,2013-04-21 11:31:00,
2013-04-21 04:32:00,54.1,39.6,30.02,SSE,167,0.0,0.0,58,0.00,SCT,,0.00,WeatherDisplay:10.37,2013-04-21 11:32:00,
2013-04-21 04:33:00,54.1,39.6,30.02,SSE,167,0.0,0.0,58,0.00,SCT,,0.00,WeatherDisplay:10.37,2013-04-21 11:33:00,
2013-04-21 04:36:00,53.9,39.5,30.02,SSE,167,0.0,0.0,58,0.00,SCT,,0.00,WeatherDisplay:10.37,2013-04-21 11:36:00,
2013-04-21 04:37:00,53.9,39.9,30.02,SSE,167,0.0,0.0,59,0.00,SCT,,0.00,WeatherDisplay:10.37,2013-04-21 11:37:00,
2013-04-21 04:38:00,53.9,39.5,30.03,SSE,167,0.0,0.0,58,0.00,SCT,,0.00,WeatherDisplay:10.37,2013-04-21 11:38:00,
2013-04-21 04:41:00,53.9,39.5,30.02,SSE,167,0.0,0.0,58,0.00,SCT,,0.00,WeatherDisplay:10.37,2013-04-21 11:41:00,
2013-04-21 04:42:00,53.9,39.5,30.02,SSE,167,0.0,0.0,58,0.00,SCT,,0.00,WeatherDisplay:10.37,2013-04-21 11:42:00,
2013-04-21 04:43:00,53.9,39.5,30.02,SSE,167,0.0,0.0,58,0.00,SCT,,0.00,WeatherDisplay:10.37,2013-04-21 11:43:00,
2013-04-21 04:44:00,53.9,39.5,30.02,SSE,167,0.0,0.0,58,0.00,SCT,,0.00,WeatherDisplay:10.37,2013-04-21 11:44:00,
2013-04-21 04:47:00,53.8,39.8,30.02,SSE,167,0.0,0.0,59,0.00,SCT,,0.00,WeatherDisplay:10.37,2013-04-21 11:47:00,
2013-04-21 04:49:00,53.7,39.7,30.02,SSE,167,0.0,0.0,59,0.00,SCT,,0.00,WeatherDisplay:10.37,2013-04-21 11:49:00,
2013-04-21 04:52:00,53.8,39.8,30.02,SSE,167,0.0,0.0,59,0.00,SCT,,0.00,WeatherDisplay:10.37,2013-04-21 11:52:00,
2013-04-21 04:53:00,53.8,39.8,30.02,SSE,167,0.0,0.0,59,0.00,SCT,,0.00,WeatherDisplay:10.37,2013-04-21 11:53:00,
2013-04-21 04:54:00,53.8,39.8,30.02,SSE,167,0.0,0.0,59,0.00,SCT,,0.00,WeatherDisplay:10.37,2013-04-21 11:54:00,
2013-04-21 04:55:00,53.8,39.8,30.02,SSE,167,0.0,0.0,59,0.00,SCT,,0.00,WeatherDisplay:10.37,2013-04-21 11:55:00,
2013-04-21 04:58:00,53.7,39.7,30.02,SSE,167,0.0,0.0,59,0.00,SCT,,0.00,WeatherDisplay:10.37,2013-04-21 11:58:00,
2013-04-21 04:59:00,53.7,39.7,30.02,SSE,167,0.0,0.0,59,0.00,SCT,,0.00,WeatherDisplay:10.37,2013-04-21 11:59:00,
2013-04-21 05:00:00,53.6,39.6,30.02,SSE,167,0.0,0.0,59,0.00,SCT,,0.00,WeatherDisplay:10.37,2013-04-21 12:00:00,
2013-04-21 05:01:00,53.6,39.6,30.02,SSE,167,0.0,0.0,59,0.00,SCT,,0.00,WeatherDisplay:10.37,2013-04-21 12:01:00,
2013-04-21 05:03:00,53.5,39.5,30.02,SSE,167,0.0,0.0,59,0.00,SCT,,0.00,WeatherDisplay:10.37,2013-04-21 12:03:00,
2013-04-21 05:04:00,53.5,39.5,30.02,SSE,167,0.0,0.0,59,0.00,SCT,,0.00,WeatherDisplay:10.37,2013-04-21 12:04:00,
2013-04-21 05:05:00,53.5,39.9,30.03,SSE,167,0.0,0.0,60,0.00,SCT,,0.00,WeatherDisplay:10.37,2013-04-21 12:05:00,
2013-04-21 05:06:00,53.5,39.5,30.02,SSE,167,0.0,0.0,59,0.00,SCT,,0.00,WeatherDisplay:10.37,2013-04-21 12:06:00,
2013-04-21 05:08:00,53.5,39.5,30.02,SSE,167,0.0,0.0,59,0.00,SCT,,0.00,WeatherDisplay:10.37,2013-04-21 12:08:00,
2013-04-21 05:10:00,53.5,39.9,30.02,SSE,167,0.0,0.0,60,0.00,SCT,,0.00,WeatherDisplay:10.37,2013-04-21 12:10:00,
2013-04-21 05:11:00,53.4,39.9,30.02,SSE,167,0.0,0.0,60,0.00,SCT,,0.00,WeatherDisplay:10.37,2013-04-21 12:11:00,
2013-04-21 05:14:00,53.2,39.7,30.02,SSE,167,0.0,0.0,60,0.00,SCT,,0.00,WeatherDisplay:10.37,2013-04-21 12:14:00,
2013-04-21 05:15:00,53.2,39.7,30.02,SSE,167,0.0,0.0,60,0.00,SCT,,0.00,WeatherDisplay:10.37,2013-04-21 12:15:00,
2013-04-21 05:16:00,53.2,39.7,30.02,SSE,167,0.0,0.0,60,0.00,SCT,,0.00,WeatherDisplay:10.37,2013-04-21 12:16:00,
2013-04-21 05:17:00,53.2,39.7,30.02,SSE,167,0.0,0.0,60,0.00,SCT,,0.00,WeatherDisplay:10.37,2013-04-21 12:17:00,
2013-04-21 05:19:00,53.1,39.6,30.02,SSE,167,0.0,0.0,60,0.00,SCT,,0.00,WeatherDisplay:10.37,2013-04-21 12:19:00,
2013-04-21 05:20:00,53.1,39.6,30.02,SSE,167,0.0,0.0,60,0.00,SCT,,0.00,WeatherDisplay:10.37,2013-04-21 12:20:00,
2013-04-21 05:21:00,53.1,39.6,30.02,SSE,167,0.0,0.0,60,0.00,SCT,,0.00,WeatherDisplay:10.37,2013-04-21 12:21:00,
2013-04-21 05:22:00,53.0,39.5,30.02,SSE,167,0.0,0.0,60,0.00,SCT,,0.00,WeatherDisplay:10.37,2013-04-21 12:22:00,
2013-04-21 05:24:00,53.0,39.5,30.02,SSE,167,0.0,0.0,60,0.00,SCT,,0.00,WeatherDisplay:10.37,2013-04-21 12:24:00,
2013-04-21 05:26:00,53.0,39.5,30.02,SSE,167,0.0,0.0,60,0.00,SCT,,0.00,WeatherDisplay:10.37,2013-04-21 12:26:00,
2013-04-21 05:27:00,52.9,39.8,30.02,SSE,167,0.0,0.0,61,0.00,SCT,,0.00,WeatherDisplay:10.37,2013-04-21 12:27:00,
2013-04-21 05:31:00,52.8,39.7,30.02,SSE,167,0.0,0.0,61,0.00,SCT,,0.00,WeatherDisplay:10.37,2013-04-21 12:31:00,
2013-04-21 05:33:00,52.8,39.7,30.02,SSE,167,0.0,0.0,61,0.00,SCT,,0.00,WeatherDisplay:10.37,2013-04-21 12:33:00,
2013-04-21 05:34:00,52.8,39.7,30.02,SSE,167,0.0,0.0,61,0.00,SCT,,0.00,WeatherDisplay:10.37,2013-04-21 12:34:00,
2013-04-21 05:36:00,52.7,39.6,30.02,SSE,167,0.0,0.0,61,0.00,SCT,,0.00,WeatherDisplay:10.37,2013-04-21 12:36:00,
2013-04-21 05:37:00,52.7,39.6,30.02,SSE,167,0.0,0.0,61,0.00,SCT,,0.00,WeatherDisplay:10.37,2013-04-21 12:37:00,
2013-04-21 05:38:00,52.7,39.6,30.02,SSE,167,0.0,0.0,61,0.00,SCT,,0.00,WeatherDisplay:10.37,2013-04-21 12:38:00,
2013-04-21 05:39:00,52.7,39.6,30.02,SSE,167,0.0,0.0,61,0.00,SCT,,0.00,WeatherDisplay:10.37,2013-04-21 12:39:00,
2013-04-21 05:41:00,52.7,39.6,30.02,SSE,167,0.0,0.0,61,0.00,SCT,,0.00,WeatherDisplay:10.37,2013-04-21 12:41:00,
2013-04-21 05:42:00,52.6,39.5,30.02,SSE,167,0.0,0.0,61,0.00,SCT,,0.00,WeatherDisplay:10.37,2013-04-21 12:42:00,
2013-04-21 05:43:00,52.6,39.5,30.02,SSE,167,0.0,0.0,61,0.00,SCT,,0.00,WeatherDisplay:10.37,2013-04-21 12:43:00,
2013-04-21 05:45:00,52.6,39.5,30.02,SSE,167,0.0,0.0,61,0.00,SCT,,0.00,WeatherDisplay:10.37,2013-04-21 12:45:00,
2013-04-21 05:47:00,52.6,39.5,30.02,SSE,167,1.2,0.0,61,0.00,SCT,,0.00,WeatherDisplay:10.37,2013-04-21 12:47:00,
2013-04-21 05:48:00,52.5,39.4,30.02,SSE,167,0.0,0.0,61,0.00,SCT,,0.00,WeatherDisplay:10.37,2013-04-21 12:48:00,
2013-04-21 05:49:00,52.5,39.4,30.02,SSE,167,0.0,0.0,61,0.00,SCT,,0.00,WeatherDisplay:10.37,2013-04-21 12:49:00,
2013-04-21 05:50:00,52.5,39.4,30.03,SSE,167,1.2,1.2,61,0.00,SCT,,0.00,WeatherDisplay:10.37,2013-04-21 12:50:00,
2013-04-21 05:52:00,52.5,39.4,30.02,SSE,167,1.2,0.0,61,0.00,SCT,,0.00,WeatherDisplay:10.37,2013-04-21 12:52:00,
2013-04-21 05:53:00,52.5,39.4,30.02,SSE,167,0.0,0.0,61,0.00,SCT,,0.00,WeatherDisplay:10.37,2013-04-21 12:53:00,
2013-04-21 05:54:00,52.5,39.4,30.02,SSE,167,0.0,0.0,61,0.00,SCT,,0.00,WeatherDisplay:10.37,2013-04-21 12:54:00,
2013-04-21 05:55:00,52.5,39.8,30.02,SSE,167,0.0,0.0,62,0.00,SCT,,0.00,WeatherDisplay:10.37,2013-04-21 12:55:00,
2013-04-21 05:57:00,52.4,39.3,30.03,SSE,167,0.0,0.0,61,0.00,SCT,,0.00,WeatherDisplay:10.37,2013-04-21 12:57:00,
2013-04-21 05:59:00,52.4,39.8,30.02,SSE,167,0.0,0.0,62,0.00,SCT,,0.00,WeatherDisplay:10.37,2013-04-21 12:59:00,
2013-04-21 06:01:00,52.4,39.8,30.02,SSE,167,0.0,0.0,62,0.00,SCT,,0.00,WeatherDisplay:10.37,2013-04-21 13:01:00,
2013-04-21 06:02:00,52.4,39.3,30.03,SSE,167,0.0,0.0,61,0.00,SCT,,0.00,WeatherDisplay:10.37,2013-04-21 13:02:00,
2013-04-21 06:04:00,52.4,39.8,30.03,SSE,167,0.0,0.0,62,0.00,SCT,,0.00,WeatherDisplay:10.37,2013-04-21 13:04:00,
2013-04-21 06:05:00,52.4,39.8,30.02,SSE,167,0.0,0.0,62,0.00,SCT,,0.00,WeatherDisplay:10.37,2013-04-21 13:05:00,
2013-04-21 06:06:00,52.4,40.2,30.03,SSE,167,0.0,0.0,63,0.00,SCT,,0.00,WeatherDisplay:10.37,2013-04-21 13:06:00,
2013-04-21 06:07:00,52.4,40.2,30.03,SSE,167,0.0,0.0,63,0.00,SCT,,0.00,WeatherDisplay:10.37,2013-04-21 13:07:00,
2013-04-21 06:10:00,52.4,40.6,30.03,SSE,167,0.0,0.0,64,0.00,SCT,,0.00,WeatherDisplay:10.37,2013-04-21 13:10:00,
2013-04-21 06:11:00,52.4,40.2,30.03,SSE,167,0.0,0.0,63,0.00,SCT,,0.00,WeatherDisplay:10.37,2013-04-21 13:11:00,
2013-04-21 06:12:00,52.4,40.6,30.03,SSE,167,0.0,0.0,64,0.00,SCT,,0.00,WeatherDisplay:10.37,2013-04-21 13:12:00,
2013-04-21 06:15:00,52.3,40.5,30.03,SSE,167,0.0,0.0,64,0.00,SCT,,0.00,WeatherDisplay:10.37,2013-04-21 13:15:00,
2013-04-21 06:16:00,52.2,40.8,30.02,SSE,167,0.0,0.0,65,0.00,SCT,,0.00,WeatherDisplay:10.37,2013-04-21 13:16:00,
2013-04-21 06:18:00,52.2,40.4,30.03,SSE,167,0.0,0.0,64,0.00,SCT,,0.00,WeatherDisplay:10.37,2013-04-21 13:18:00,
2013-04-21 06:20:00,52.1,40.3,30.03,SSE,167,0.0,0.0,64,0.00,SCT,,0.00,WeatherDisplay:10.37,2013-04-21 13:20:00,
2013-04-21 06:21:00,52.1,40.7,30.03,SSE,167,0.0,0.0,65,0.00,SCT,,0.00,WeatherDisplay:10.37,2013-04-21 13:21:00,
2013-04-21 06:22:00,52.1,40.3,30.03,SSE,167,0.0,0.0,64,0.00,SCT,,0.00,WeatherDisplay:10.37,2013-04-21 13:22:00,
2013-04-21 06:24:00,52.1,40.3,30.03,SSE,167,0.0,0.0,64,0.00,SCT,,0.00,WeatherDisplay:10.37,2013-04-21 13:24:00,
2013-04-21 06:25:00,52.1,40.3,30.03,SSE,167,0.0,0.0,64,0.00,SCT,,0.00,WeatherDisplay:10.37,2013-04-21 13:25:00,
2013-04-21 06:26:00,52.1,40.3,30.03,SSE,167,0.0,0.0,64,0.00,SCT,,0.00,WeatherDisplay:10.37,2013-04-21 13:26:00,
2013-04-21 06:28:00,52.0,40.2,30.03,SSE,167,0.0,0.0,64,0.00,SCT,,0.00,WeatherDisplay:10.37,2013-04-21 13:28:00,
2013-04-21 06:30:00,52.0,40.6,30.03,SSE,167,0.0,0.0,65,0.00,SCT,,0.00,WeatherDisplay:10.37,2013-04-21 13:30:00,
2013-04-21 06:32:00,52.0,40.6,30.03,SSE,167,0.0,0.0,65,0.00,SCT,,0.00,WeatherDisplay:10.37,2013-04-21 13:32:00,
2013-04-21 06:34:00,52.0,40.6,30.03,SSE,167,0.0,0.0,65,0.00,SCT,,0.00,WeatherDisplay:10.37,2013-04-21 13:34:00,
2013-04-21 06:36:00,51.9,40.5,30.03,SSE,167,0.0,0.0,65,0.00,SCT,,0.00,WeatherDisplay:10.37,2013-04-21 13:36:00,
2013-04-21 06:37:00,51.9,40.5,30.03,SSE,167,0.0,0.0,65,0.00,SCT,,0.00,WeatherDisplay:10.37,2013-04-21 13:37:00,
2013-04-21 06:38:00,51.9,40.1,30.04,SSE,167,0.0,0.0,64,0.00,SCT,,0.00,WeatherDisplay:10.37,2013-04-21 13:38:00,
2013-04-21 06:39:00,51.9,40.5,30.03,SSE,167,0.0,0.0,65,0.00,SCT,,0.00,WeatherDisplay:10.37,2013-04-21 13:39:00,
2013-04-21 06:41:00,51.9,40.5,30.03,SSE,167,0.0,0.0,65,0.00,SCT,,0.00,WeatherDisplay:10.37,2013-04-21 13:41:00,
2013-04-21 06:42:00,51.9,40.5,30.03,SSE,167,0.0,0.0,65,0.00,SCT,,0.00,WeatherDisplay:10.37,2013-04-21 13:42:00,
2013-04-21 06:44:00,51.8,40.4,30.03,SSE,167,1.2,0.0,65,0.00,SCT,,0.00,WeatherDisplay:10.37,2013-04-21 13:44:00,
2013-04-21 06:45:00,51.8,40.4,30.04,SSE,167,1.2,0.0,65,0.00,SCT,,0.00,WeatherDisplay:10.37,2013-04-21 13:45:00,
2013-04-21 06:47:00,51.7,40.3,30.04,SSE,167,0.0,0.0,65,0.00,SCT,,0.00,WeatherDisplay:10.37,2013-04-21 13:47:00,
2013-04-21 06:48:00,51.6,40.2,30.04,SSE,167,0.0,0.0,65,0.00,SCT,,0.00,WeatherDisplay:10.37,2013-04-21 13:48:00,
2013-04-21 06:49:00,51.6,40.6,30.04,SSE,167,0.0,0.0,66,0.00,SCT,,0.00,WeatherDisplay:10.37,2013-04-21 13:49:00,
2013-04-21 06:51:00,51.7,40.7,30.04,SSE,167,0.0,0.0,66,0.00,SCT,,0.00,WeatherDisplay:10.37,2013-04-21 13:51:00,
2013-04-21 06:52:00,51.7,40.3,30.03,SSE,167,0.0,0.0,65,0.00,SCT,,0.00,WeatherDisplay:10.37,2013-04-21 13:52:00,
2013-04-21 06:54:00,51.7,40.3,30.04,SSE,167,0.0,0.0,65,0.00,SCT,,0.00,WeatherDisplay:10.37,2013-04-21 13:54:00,
2013-04-21 06:56:00,51.8,40.8,30.04,SSE,167,0.0,0.0,66,0.00,SCT,,0.00,WeatherDisplay:10.37,2013-04-21 13:56:00,
2013-04-21 06:57:00,51.8,40.4,30.04,SSE,167,0.0,0.0,65,0.00,SCT,,0.00,WeatherDisplay:10.37,2013-04-21 13:57:00,
2013-04-21 06:58:00,51.8,40.4,30.04,SSE,167,0.0,0.0,65,0.00,SCT,,0.00,WeatherDisplay:10.37,2013-04-21 13:58:00,
2013-04-21 07:00:00,51.8,40.4,30.04,SSE,167,0.0,0.0,65,0.00,SCT,,0.00,WeatherDisplay:10.37,2013-04-21 14:00:00,
2013-04-21 07:01:00,51.8,40.4,30.04,SSE,167,0.0,0.0,65,0.00,SCT,,0.00,WeatherDisplay:10.37,2013-04-21 14:01:00,
2013-04-21 07:03:00,51.9,40.9,30.04,SSE,167,0.0,0.0,66,0.00,SCT,,0.00,WeatherDisplay:10.37,2013-04-21 14:03:00,
2013-04-21 07:05:00,52.2,41.2,30.04,SSE,167,0.0,0.0,66,0.00,SCT,,0.00,WeatherDisplay:10.37,2013-04-21 14:05:00,
2013-04-21 07:06:00,52.3,41.3,30.04,SSE,167,0.0,0.0,66,0.00,SCT,,0.00,WeatherDisplay:10.37,2013-04-21 14:06:00,
2013-04-21 07:08:00,52.6,41.2,30.04,SSE,167,0.0,0.0,65,0.00,SCT,,0.00,WeatherDisplay:10.37,2013-04-21 14:08:00,
2013-04-21 07:09:00,52.6,41.2,30.04,SSE,167,0.0,0.0,65,0.00,SCT,,0.00,WeatherDisplay:10.37,2013-04-21 14:09:00,
2013-04-21 07:10:00,52.8,41.4,30.04,SSE,167,0.0,0.0,65,0.00,SCT,,0.00,WeatherDisplay:10.37,2013-04-21 14:10:00,
2013-04-21 07:12:00,53.0,41.9,30.04,SSE,167,0.0,0.0,66,0.00,SCT,,0.00,WeatherDisplay:10.37,2013-04-21 14:12:00,
2013-04-21 07:14:00,53.5,42.0,30.04,SSE,167,0.0,0.0,65,0.00,SCT,,0.00,WeatherDisplay:10.37,2013-04-21 14:14:00,
2013-04-21 07:15:00,53.5,42.0,30.05,SSE,167,0.0,0.0,65,0.00,SCT,,0.00,WeatherDisplay:10.37,2013-04-21 14:15:00,
2013-04-21 07:18:00,54.1,41.8,30.05,SSE,167,1.2,1.2,63,0.00,SCT,,0.00,WeatherDisplay:10.37,2013-04-21 14:18:00,
2013-04-21 07:19:00,54.1,41.4,30.05,SSE,167,0.0,0.0,62,0.00,SCT,,0.00,WeatherDisplay:10.37,2013-04-21 14:19:00,
2013-04-21 07:20:00,54.2,41.9,30.04,SSE,167,1.0,0.0,63,0.00,SCT,,0.00,WeatherDisplay:10.37,2013-04-21 14:20:00,
2013-04-21 07:21:00,54.3,42.0,30.05,SSE,167,1.2,0.0,63,0.00,SCT,,0.00,WeatherDisplay:10.37,2013-04-21 14:21:00,
2013-04-21 07:24:00,54.4,41.6,30.05,SSE,167,0.0,0.0,62,0.00,SCT,,0.00,WeatherDisplay:10.37,2013-04-21 14:24:00,
2013-04-21 07:25:00,54.6,41.8,30.05,SSE,167,0.0,0.0,62,0.00,SCT,,0.00,WeatherDisplay:10.37,2013-04-21 14:25:00,
2013-04-21 07:26:00,54.9,41.3,30.05,SSE,167,0.0,0.0,60,0.00,SCT,,0.00,WeatherDisplay:10.37,2013-04-21 14:26:00,
2013-04-21 07:27:00,54.9,41.3,30.05,SSE,167,0.0,0.0,60,0.00,SCT,,0.00,WeatherDisplay:10.37,2013-04-21 14:27:00,
2013-04-21 07:29:00,55.0,40.9,30.05,SSE,167,0.0,0.0,59,0.00,SCT,,0.00,WeatherDisplay:10.37,2013-04-21 14:29:00,
2013-04-21 07:31:00,55.2,41.5,30.05,NE,46,2.0,2.0,60,0.00,SCT,,0.00,WeatherDisplay:10.37,2013-04-21 14:31:00,
2013-04-21 07:32:00,55.2,41.5,30.05,NE,45,1.2,1.2,60,0.00,SCT,,0.00,WeatherDisplay:10.37,2013-04-21 14:32:00,
2013-04-21 07:34:00,55.4,41.3,30.05,NE,48,2.0,2.0,59,0.00,SCT,,0.00,WeatherDisplay:10.37,2013-04-21 14:34:00,
2013-04-21 07:37:00,55.6,41.0,30.06,North,360,3.5,3.5,58,0.00,SCT,,0.00,WeatherDisplay:10.37,2013-04-21 14:37:00,
2013-04-21 07:38:00,55.8,41.2,30.05,North,360,0.0,0.0,58,0.00,SCT,,0.00,WeatherDisplay:10.37,2013-04-21 14:38:00,
2013-04-21 07:39:00,55.9,41.3,30.05,North,360,2.0,2.0,58,0.00,SCT,,0.00,WeatherDisplay:10.37,2013-04-21 14:39:00,
2013-04-21 07:40:00,56.1,41.5,30.05,North,1,2.3,2.3,58,0.00,SCT,,0.00,WeatherDisplay:10.37,2013-04-21 14:40:00,
2013-04-21 07:42:00,56.5,41.9,30.06,North,1,0.0,0.0,58,0.00,SCT,,0.00,WeatherDisplay:10.37,2013-04-21 14:42:00,
2013-04-21 07:44:00,56.8,41.7,30.06,North,1,0.0,0.0,57,0.00,SCT,,0.00,WeatherDisplay:10.37,2013-04-21 14:44:00,
2013-04-21 07:45:00,56.9,41.4,30.06,North,1,0.0,0.0,56,0.00,SCT,,0.00,WeatherDisplay:10.37,2013-04-21 14:45:00,
2013-04-21 07:47:00,57.1,41.5,30.06,North,1,0.0,0.0,56,0.00,SCT,,0.00,WeatherDisplay:10.37,2013-04-21 14:47:00,
2013-04-21 07:49:00,57.3,41.7,30.06,North,1,0.0,0.0,56,0.00,SCT,,0.00,WeatherDisplay:10.37,2013-04-21 14:49:00,
2013-04-21 07:50:00,57.3,41.3,30.06,North,1,0.0,0.0,55,0.00,SCT,,0.00,WeatherDisplay:10.37,2013-04-21 14:50:00,
2013-04-21 07:51:00,57.4,41.8,30.06,North,1,0.0,0.0,56,0.00,SCT,,0.00,WeatherDisplay:10.37,2013-04-21 14:51:00,
2013-04-21 07:52:00,57.7,42.1,30.06,North,1,0.0,0.0,56,0.00,SCT,,0.00,WeatherDisplay:10.37,2013-04-21 14:52:00,
2013-04-21 07:55:00,58.2,42.1,30.06,North,1,0.0,0.0,55,0.00,SCT,,0.00,WeatherDisplay:10.37,2013-04-21 14:55:00,
2013-04-21 07:56:00,58.5,42.4,30.06,North,1,1.2,1.2,55,0.00,SCT,,0.00,WeatherDisplay:10.37,2013-04-21 14:56:00,
2013-04-21 07:58:00,58.8,42.2,30.06,North,1,1.2,0.0,54,0.00,SCT,,0.00,WeatherDisplay:10.37,2013-04-21 14:58:00,
2013-04-21 08:00:00,59.2,42.1,30.06,North,1,0.0,0.0,53,0.00,SCT,,0.00,WeatherDisplay:10.37,2013-04-21 15:00:00,
2013-04-21 08:01:00,59.2,42.1,30.06,North,1,0.0,0.0,53,0.00,SCT,,0.00,WeatherDisplay:10.37,2013-04-21 15:01:00,
2013-04-21 08:02:00,59.4,42.3,30.06,North,1,0.0,0.0,53,0.00,SCT,,0.00,WeatherDisplay:10.37,2013-04-21 15:02:00,
2013-04-21 08:04:00,59.7,42.0,30.06,North,1,0.0,0.0,52,0.00,SCT,,0.00,WeatherDisplay:10.37,2013-04-21 15:04:00,
2013-04-21 08:06:00,60.0,42.3,30.06,North,1,0.0,0.0,52,0.00,SCT,,0.00,WeatherDisplay:10.37,2013-04-21 15:06:00,
2013-04-21 08:07:00,60.2,42.0,30.06,North,1,0.0,0.0,51,0.00,SCT,,0.00,WeatherDisplay:10.37,2013-04-21 15:07:00,
2013-04-21 08:08:00,60.3,41.6,30.06,North,1,1.2,0.0,50,0.00,SCT,,0.00,WeatherDisplay:10.37,2013-04-21 15:08:00,
2013-04-21 08:09:00,60.4,41.7,30.07,North,1,1.2,0.0,50,0.00,SCT,,0.00,WeatherDisplay:10.37,2013-04-21 15:09:00,
2013-04-21 08:11:00,60.6,41.8,30.06,North,1,0.0,0.2,50,0.00,SCT,,0.00,WeatherDisplay:10.37,2013-04-21 15:11:00,
2013-04-21 08:12:00,60.8,42.5,30.07,North,1,1.2,0.0,51,0.00,SCT,,0.00,WeatherDisplay:10.37,2013-04-21 15:12:00,
2013-04-21 08:13:00,61.0,42.2,30.07,North,1,0.0,0.0,50,0.00,SCT,,0.00,WeatherDisplay:10.37,2013-04-21 15:13:00,
2013-04-21 08:15:00,61.0,42.3,30.06,North,1,0.0,1.0,50,0.00,SCT,,0.00,WeatherDisplay:10.37,2013-04-21 15:15:00,
2013-04-21 08:17:00,61.3,42.0,30.06,North,1,0.0,0.0,49,0.00,SCT,,0.00,WeatherDisplay:10.37,2013-04-21 15:17:00,
2013-04-21 08:18:00,61.6,41.7,30.06,North,1,0.0,0.0,48,0.00,SCT,,0.00,WeatherDisplay:10.37,2013-04-21 15:18:00,
2013-04-21 08:19:00,61.7,41.8,30.06,North,1,0.0,0.0,48,0.00,SCT,,0.00,WeatherDisplay:10.37,2013-04-21 15:19:00,
2013-04-21 08:20:00,61.7,41.8,30.06,North,1,0.0,2.0,48,0.00,SCT,,0.00,WeatherDisplay:10.37,2013-04-21 15:20:00,
2013-04-21 08:22:00,62.1,43.2,30.06,North,4,1.2,0.0,50,0.00,SCT,,0.00,WeatherDisplay:10.37,2013-04-21 15:22:00,
2013-04-21 08:23:00,62.2,43.3,30.06,North,4,1.2,0.0,50,0.00,SCT,,0.00,WeatherDisplay:10.37,2013-04-21 15:23:00,
2013-04-21 08:24:00,62.4,43.0,30.06,North,4,1.2,0.0,49,0.00,SCT,,0.00,WeatherDisplay:10.37,2013-04-21 15:24:00,
2013-04-21 08:25:00,62.4,43.0,30.06,North,2,0.0,3.0,49,0.00,SCT,,0.00,WeatherDisplay:10.37,2013-04-21 15:25:00,
2013-04-21 08:28:00,62.8,42.8,30.06,North,4,0.0,0.0,48,0.00,SCT,,0.00,WeatherDisplay:10.37,2013-04-21 15:28:00,
2013-04-21 08:30:00,63.1,43.1,30.06,North,4,0.0,0.0,48,0.00,SCT,,0.00,WeatherDisplay:10.37,2013-04-21 15:30:00,
2013-04-21 08:31:00,63.1,43.1,30.06,North,4,0.0,0.0,48,0.00,SCT,,0.00,WeatherDisplay:10.37,2013-04-21 15:31:00,
2013-04-21 08:33:00,63.5,42.9,30.06,North,4,1.0,0.0,47,0.00,SCT,,0.00,WeatherDisplay:10.37,2013-04-21 15:33:00,
2013-04-21 08:34:00,63.6,43.5,30.06,North,4,2.0,2.0,48,0.00,SCT,,0.00,WeatherDisplay:10.37,2013-04-21 15:34:00,
2013-04-21 08:35:00,63.7,43.6,30.06,North,4,2.3,2.3,48,0.00,SCT,,0.00,WeatherDisplay:10.37,2013-04-21 15:35:00,
2013-04-21 08:36:00,63.9,43.8,30.06,North,4,1.2,1.2,48,0.00,SCT,,0.00,WeatherDisplay:10.37,2013-04-21 15:36:00,
2013-04-21 08:39:00,64.2,43.5,30.06,North,4,1.2,1.2,47,0.00,SCT,,0.00,WeatherDisplay:10.37,2013-04-21 15:39:00,
2013-04-21 08:40:00,64.2,43.0,30.06,North,3,2.0,2.0,46,0.00,SCT,,0.00,WeatherDisplay:10.37,2013-04-21 15:40:00,
2013-04-21 08:41:00,64.4,43.7,30.06,North,353,3.5,3.5,47,0.00,SCT,,0.00,WeatherDisplay:10.37,2013-04-21 15:41:00,
2013-04-21 08:45:00,64.8,43.5,30.06,NNE,14,4.6,4.6,46,0.00,SCT,,0.00,WeatherDisplay:10.37,2013-04-21 15:45:00,
2013-04-21 08:46:00,64.8,43.5,30.06,North,9,4.6,4.6,46,0.00,SCT,,0.00,WeatherDisplay:10.37,2013-04-21 15:46:00,
2013-04-21 08:47:00,64.9,43.6,30.06,NNE,23,3.5,3.5,46,0.00,SCT,,0.00,WeatherDisplay:10.37,2013-04-21 15:47:00,
2013-04-21 08:50:00,65.3,43.4,30.06,NW,322,1.2,1.2,45,0.00,SCT,,0.00,WeatherDisplay:10.37,2013-04-21 15:50:00,
2013-04-21 08:51:00,65.4,42.9,30.06,NW,322,0.0,0.0,44,0.00,SCT,,0.00,WeatherDisplay:10.37,2013-04-21 15:51:00,
2013-04-21 08:52:00,65.4,43.5,30.06,North,360,3.0,3.0,45,0.00,SCT,,0.00,WeatherDisplay:10.37,2013-04-21 15:52:00,
2013-04-21 08:53:00,65.6,43.1,30.07,North,6,3.5,3.5,44,0.00,SCT,,0.00,WeatherDisplay:10.37,2013-04-21 15:53:00,
2013-04-21 08:56:00,66.0,43.5,30.07,WSW,255,3.5,3.5,44,0.00,SCT,,0.00,WeatherDisplay:10.37,2013-04-21 15:56:00,
2013-04-21 08:57:00,66.2,43.6,30.06,SSW,205,1.2,0.0,44,0.00,SCT,,0.00,WeatherDisplay:10.37,2013-04-21 15:57:00,
2013-04-21 08:58:00,66.2,43.6,30.06,SE,124,2.0,2.0,44,0.00,SCT,,0.00,WeatherDisplay:10.37,2013-04-21 15:58:00,
2013-04-21 09:00:00,66.6,43.4,30.07,NNW,334,3.5,3.5,43,0.00,SCT,,0.00,WeatherDisplay:10.37,2013-04-21 16:00:00,
2013-04-21 09:01:00,66.6,42.8,30.06,NNW,332,2.3,2.3,42,0.00,SCT,,0.00,WeatherDisplay:10.37,2013-04-21 16:01:00,
2013-04-21 09:02:00,66.7,43.5,30.07,NNW,332,1.2,1.2,43,0.00,SCT,,0.00,WeatherDisplay:10.37,2013-04-21 16:02:00,
2013-04-21 09:03:00,66.8,43.6,30.07,North,350,2.3,2.3,43,0.00,SCT,,0.00,WeatherDisplay:10.37,2013-04-21 16:03:00,
2013-04-21 09:06:00,67.3,43.4,30.07,North,350,1.2,1.2,42,0.00,SCT,,0.00,WeatherDisplay:10.37,2013-04-21 16:06:00,
2013-04-21 09:08:00,67.7,42.5,30.06,North,3,2.3,2.3,40,0.00,SCT,,0.00,WeatherDisplay:10.37,2013-04-21 16:08:00,
2013-04-21 09:09:00,67.7,42.5,30.06,North,3,2.3,2.3,40,0.00,SCT,,0.00,WeatherDisplay:10.37,2013-04-21 16:09:00,
2013-04-21 09:11:00,68.2,41.6,30.06,North,5,2.3,2.3,38,0.00,SCT,,0.00,WeatherDisplay:10.37,2013-04-21 16:11:00,
2013-04-21 09:13:00,68.5,42.6,30.06,North,5,2.3,2.3,39,0.00,SCT,,0.00,WeatherDisplay:10.37,2013-04-21 16:13:00,
2013-04-21 09:14:00,68.5,42.6,30.06,North,5,2.3,2.3,39,0.00,SCT,,0.00,WeatherDisplay:10.37,2013-04-21 16:14:00,
2013-04-21 09:17:00,68.9,42.2,30.06,North,350,4.0,4.0,38,0.00,SCT,,0.00,WeatherDisplay:10.37,2013-04-21 16:17:00,
2013-04-21 09:18:00,69.0,40.9,30.06,North,355,5.0,5.0,36,0.00,SCT,,0.00,WeatherDisplay:10.37,2013-04-21 16:18:00,
2013-04-21 09:19:00,69.0,40.9,30.06,NNE,19,5.0,5.0,36,0.00,SCT,,0.00,WeatherDisplay:10.37,2013-04-21 16:19:00,
2013-04-21 09:20:00,69.1,41.0,30.06,North,352,5.8,5.8,36,0.00,SCT,,0.00,WeatherDisplay:10.37,2013-04-21 16:20:00,
2013-04-21 09:22:00,69.3,38.9,30.06,NNW,346,4.6,4.6,33,0.00,SCT,,0.00,WeatherDisplay:10.37,2013-04-21 16:22:00,
2013-04-21 09:24:00,69.5,39.1,30.06,WNW,289,5.8,5.8,33,0.00,SCT,,0.00,WeatherDisplay:10.37,2013-04-21 16:24:00,
2013-04-21 09:25:00,69.6,39.2,30.06,NW,307,5.8,5.8,33,0.00,SCT,,0.00,WeatherDisplay:10.37,2013-04-21 16:25:00,
2013-04-21 09:28:00,70.1,38.9,30.06,North,2,1.2,1.2,32,0.00,SCT,,0.00,WeatherDisplay:10.37,2013-04-21 16:28:00,
2013-04-21 09:29:00,70.3,36.5,30.06,NW,318,1.2,0.0,29,0.00,SCT,,0.00,WeatherDisplay:10.37,2013-04-21 16:29:00,
2013-04-21 09:30:00,70.3,37.4,30.06,North,353,0.0,3.0,30,0.00,SCT,,0.00,WeatherDisplay:10.37,2013-04-21 16:30:00,
2013-04-21 09:31:00,70.5,37.6,30.06,West,263,2.3,2.3,30,0.00,SCT,,0.00,WeatherDisplay:10.37,2013-04-21 16:31:00,
2013-04-21 09:34:00,70.9,37.0,30.06,WNW,295,0.0,0.0,29,0.00,SCT,,0.00,WeatherDisplay:10.37,2013-04-21 16:34:00,
2013-04-21 09:36:00,71.2,36.4,30.06,NNE,17,4.6,4.6,28,0.00,SCT,,0.00,WeatherDisplay:10.37,2013-04-21 16:36:00,
2013-04-21 09:37:00,71.3,36.5,30.06,NNE,17,4.6,4.6,28,0.00,SCT,,0.00,WeatherDisplay:10.37,2013-04-21 16:37:00,
2013-04-21 09:39:00,71.7,36.8,30.06,North,352,2.3,2.3,28,0.00,SCT,,0.00,WeatherDisplay:10.37,2013-04-21 16:39:00,
2013-04-21 09:41:00,72.0,36.2,30.06,WSW,252,3.5,3.5,27,0.00,SCT,,0.00,WeatherDisplay:10.37,2013-04-21 16:41:00,
2013-04-21 09:42:00,72.0,36.2,30.06,West,266,3.5,3.5,27,0.00,SCT,,0.00,WeatherDisplay:10.37,2013-04-21 16:42:00,
2013-04-21 09:44:00,72.4,36.5,30.06,SW,236,5.0,5.0,27,0.00,SCT,,0.00,WeatherDisplay:10.37,2013-04-21 16:44:00,
2013-04-21 09:47:00,72.7,34.8,30.06,SSW,199,3.5,3.5,25,0.00,SCT,,0.00,WeatherDisplay:10.37,2013-04-21 16:47:00,
2013-04-21 09:48:00,72.8,34.9,30.06,South,190,3.5,3.5,25,0.00,SCT,,0.00,WeatherDisplay:10.37,2013-04-21 16:48:00,
2013-04-21 09:50:00,73.0,36.1,30.06,SW,214,3.5,3.5,26,0.00,SCT,,0.00,WeatherDisplay:10.37,2013-04-21 16:50:00,
2013-04-21 09:52:00,73.2,34.2,30.06,WSW,237,10.4,10.4,24,0.00,SCT,,0.00,WeatherDisplay:10.37,2013-04-21 16:52:00,
2013-04-21 09:53:00,73.2,34.2,30.06,SSW,209,10.4,10.4,24,0.00,SCT,,0.00,WeatherDisplay:10.37,2013-04-21 16:53:00,
2013-04-21 09:55:00,73.3,34.3,30.06,SW,227,3.0,12.0,24,0.00,SCT,,0.00,WeatherDisplay:10.37,2013-04-21 16:55:00,
2013-04-21 09:56:00,73.4,34.4,30.06,SSW,199,8.1,8.1,24,0.00,SCT,,0.00,WeatherDisplay:10.37,2013-04-21 16:56:00,
2013-04-21 09:58:00,73.5,34.5,30.06,NNW,333,3.5,3.5,24,0.00,SCT,,0.00,WeatherDisplay:10.37,2013-04-21 16:58:00,
2013-04-21 09:59:00,73.6,34.6,30.06,SW,224,3.5,3.5,24,0.00,SCT,,0.00,WeatherDisplay:10.37,2013-04-21 16:59:00,
2013-04-21 10:01:00,73.8,33.7,30.06,SSW,211,5.8,5.8,23,0.00,SCT,,0.00,WeatherDisplay:10.37,2013-04-21 17:01:00,
2013-04-21 10:02:00,73.8,34.7,30.06,West,266,5.8,5.8,24,0.00,SCT,,0.00,WeatherDisplay:10.37,2013-04-21 17:02:00,
2013-04-21 10:03:00,73.9,34.8,30.06,WSW,238,4.6,4.6,24,0.00,SCT,,0.00,WeatherDisplay:10.37,2013-04-21 17:03:00,
2013-04-21 10:04:00,73.9,34.8,30.06,SW,236,4.6,4.6,24,0.00,SCT,,0.00,WeatherDisplay:10.37,2013-04-21 17:04:00,
2013-04-21 10:07:00,74.2,35.1,30.06,SW,214,5.8,5.8,24,0.00,SCT,,0.00,WeatherDisplay:10.37,2013-04-21 17:07:00,
2013-04-21 10:09:00,74.3,35.2,30.07,SSW,211,3.5,3.5,24,0.00,SCT,,0.00,WeatherDisplay:10.37,2013-04-21 17:09:00,
2013-04-21 10:12:00,74.8,35.6,30.07,SSW,200,3.5,3.5,24,0.00,SCT,,0.00,WeatherDisplay:10.37,2013-04-21 17:12:00,
2013-04-21 10:13:00,74.8,34.5,30.06,SSW,206,5.8,5.8,23,0.00,SCT,,0.00,WeatherDisplay:10.37,2013-04-21 17:13:00,
2013-04-21 10:14:00,74.9,35.7,30.07,SSW,195,5.8,5.8,24,0.00,SCT,,0.00,WeatherDisplay:10.37,2013-04-21 17:14:00,
2013-04-21 10:15:00,75.0,34.7,30.06,SSW,211,6.9,6.9,23,0.00,SCT,,0.00,WeatherDisplay:10.37,2013-04-21 17:15:00,
2013-04-21 10:17:00,75.1,34.8,30.07,SW,219,6.0,6.0,23,0.00,SCT,,0.00,WeatherDisplay:10.37,2013-04-21 17:17:00,
2013-04-21 10:18:00,75.2,34.8,30.06,SSW,207,5.8,5.8,23,0.00,SCT,,0.00,WeatherDisplay:10.37,2013-04-21 17:18:00,
2013-04-21 10:19:00,75.3,33.8,30.06,WSW,245,3.5,3.5,22,0.00,SCT,,0.00,WeatherDisplay:10.37,2013-04-21 17:19:00,
2013-04-21 10:20:00,75.4,36.1,30.07,WSW,246,1.2,1.2,24,0.00,SCT,,0.00,WeatherDisplay:10.37,2013-04-21 17:20:00,
2013-04-21 10:22:00,75.5,34.0,30.07,SW,224,10.4,10.4,22,0.00,SCT,,0.00,WeatherDisplay:10.37,2013-04-21 17:22:00,
2013-04-21 10:25:00,75.6,34.1,30.07,WSW,252,10.0,10.0,22,0.00,SCT,,0.00,WeatherDisplay:10.37,2013-04-21 17:25:00,
2013-04-21 10:26:00,75.7,35.3,30.07,South,189,10.4,10.4,23,0.00,SCT,,0.00,WeatherDisplay:10.37,2013-04-21 17:26:00,
2013-04-21 10:27:00,75.8,35.3,30.07,SSW,211,8.1,8.1,23,0.00,SCT,,0.00,WeatherDisplay:10.37,2013-04-21 17:27:00,
2013-04-21 10:30:00,76.0,33.2,30.07,WSW,244,5.8,5.8,21,0.00,SCT,,0.00,WeatherDisplay:10.37,2013-04-21 17:30:00,
2013-04-21 10:31:00,76.2,33.4,30.07,SSW,202,3.5,3.5,21,0.00,SCT,,0.00,WeatherDisplay:10.37,2013-04-21 17:31:00,
2013-04-21 10:33:00,76.3,33.5,30.07,WSW,240,8.1,8.1,21,0.00,SCT,,0.00,WeatherDisplay:10.37,2013-04-21 17:33:00,
2013-04-21 10:35:00,76.5,33.6,30.07,SW,234,9.2,9.2,21,0.00,SCT,,0.00,WeatherDisplay:10.37,2013-04-21 17:35:00,
2013-04-21 10:36:00,76.5,33.6,30.07,South,185,9.2,9.2,21,0.00,SCT,,0.00,WeatherDisplay:10.37,2013-04-21 17:36:00,
2013-04-21 10:39:00,76.8,35.1,30.07,SW,226,6.0,6.0,22,0.00,SCT,,0.00,WeatherDisplay:10.37,2013-04-21 17:39:00,
2013-04-21 10:40:00,76.8,33.9,30.07,SSW,203,9.2,9.2,21,0.00,SCT,,0.00,WeatherDisplay:10.37,2013-04-21 17:40:00,
2013-04-21 10:41:00,76.8,33.9,30.07,WSW,238,8.1,8.1,21,0.00,SCT,,0.00,WeatherDisplay:10.37,2013-04-21 17:41:00,
2013-04-21 10:43:00,77.0,35.2,30.07,SW,215,3.5,3.5,22,0.00,SCT,,0.00,WeatherDisplay:10.37,2013-04-21 17:43:00,
2013-04-21 10:44:00,77.0,35.2,30.07,SW,215,6.9,6.9,22,0.00,SCT,,0.00,WeatherDisplay:10.37,2013-04-21 17:44:00,
2013-04-21 10:46:00,77.0,34.1,30.07,SSW,212,3.5,3.5,21,0.00,SCT,,0.00,WeatherDisplay:10.37,2013-04-21 17:46:00,
2013-04-21 10:48:00,77.2,34.2,30.07,West,265,5.8,5.8,21,0.00,SCT,,0.00,WeatherDisplay:10.37,2013-04-21 17:48:00,
2013-04-21 10:49:00,77.3,35.5,30.07,SSW,197,2.3,2.3,22,0.00,SCT,,0.00,WeatherDisplay:10.37,2013-04-21 17:49:00,
2013-04-21 10:50:00,77.6,36.8,30.07,SW,221,1.2,1.2,23,0.00,SCT,,0.00,WeatherDisplay:10.37,2013-04-21 17:50:00,
2013-04-21 10:51:00,77.6,35.7,30.07,SW,220,1.2,1.2,22,0.00,SCT,,0.00,WeatherDisplay:10.37,2013-04-21 17:51:00,
2013-04-21 10:53:00,77.9,37.1,30.07,SW,222,5.8,5.8,23,0.00,SCT,,0.00,WeatherDisplay:10.37,2013-04-21 17:53:00,
2013-04-21 10:55:00,77.9,34.8,30.07,SW,228,10.4,10.4,21,0.00,SCT,,0.00,WeatherDisplay:10.37,2013-04-21 17:55:00,
2013-04-21 10:56:00,77.9,36.0,30.07,SW,232,10.4,10.4,22,0.00,SCT,,0.00,WeatherDisplay:10.37,2013-04-21 17:56:00,
2013-04-21 10:59:00,78.0,36.1,30.07,WSW,247,4.6,4.6,22,0.00,SCT,,0.00,WeatherDisplay:10.37,2013-04-21 17:59:00,
2013-04-21 11:00:00,77.9,34.8,30.07,South,187,4.6,4.6,21,0.00,SCT,,0.00,WeatherDisplay:10.37,2013-04-21 18:00:00,
2013-04-21 11:02:00,78.0,36.1,30.07,SSW,209,3.5,3.5,22,0.00,SCT,,0.00,WeatherDisplay:10.37,2013-04-21 18:02:00,
2013-04-21 11:04:00,78.3,36.3,30.07,SSW,208,3.5,3.5,22,0.00,SCT,,0.00,WeatherDisplay:10.37,2013-04-21 18:04:00,
2013-04-21 11:06:00,78.4,35.2,30.07,WSW,249,3.5,3.5,21,0.00,SCT,,0.00,WeatherDisplay:10.37,2013-04-21 18:06:00,
2013-04-21 11:07:00,78.4,35.2,30.07,WSW,246,2.3,2.3,21,0.00,SCT,,0.00,WeatherDisplay:10.37,2013-04-21 18:07:00,
2013-04-21 11:08:00,78.4,35.2,30.07,SW,214,8.1,8.1,21,0.00,SCT,,0.00,WeatherDisplay:10.37,2013-04-21 18:08:00,
2013-04-21 11:09:00,78.4,35.2,30.07,SW,233,8.1,8.1,21,0.00,SCT,,0.00,WeatherDisplay:10.37,2013-04-21 18:09:00,
2013-04-21 11:11:00,78.5,35.3,30.07,SSW,201,4.6,4.6,21,0.00,SCT,,0.00,WeatherDisplay:10.37,2013-04-21 18:11:00,
2013-04-21 11:12:00,78.5,35.3,30.07,WSW,239,3.0,3.0,21,0.00,SCT,,0.00,WeatherDisplay:10.37,2013-04-21 18:12:00,
2013-04-21 11:14:00,78.5,35.3,30.07,WSW,238,4.0,4.0,21,0.00,SCT,,0.00,WeatherDisplay:10.37,2013-04-21 18:14:00,
2013-04-21 11:15:00,78.5,35.3,30.07,WSW,248,5.8,5.8,21,0.00,SCT,,0.00,WeatherDisplay:10.37,2013-04-21 18:15:00,
2013-04-21 11:17:00,78.7,35.5,30.06,SSW,207,5.0,5.0,21,0.00,SCT,,0.00,WeatherDisplay:10.37,2013-04-21 18:17:00,
2013-04-21 11:18:00,78.7,35.5,30.07,SW,225,3.5,3.5,21,0.00,SCT,,0.00,WeatherDisplay:10.37,2013-04-21 18:18:00,
2013-04-21 11:21:00,79.0,35.7,30.07,SSW,209,4.6,4.6,21,0.00,SCT,,0.00,WeatherDisplay:10.37,2013-04-21 18:21:00,
2013-04-21 11:23:00,79.1,35.8,30.07,South,189,4.6,4.6,21,0.00,SCT,,0.00,WeatherDisplay:10.37,2013-04-21 18:23:00,
2013-04-21 11:24:00,79.3,36.0,30.07,WNW,289,3.5,3.5,21,0.00,SCT,,0.00,WeatherDisplay:10.37,2013-04-21 18:24:00,
2013-04-21 11:27:00,79.4,36.0,30.06,WSW,248,8.1,8.1,21,0.00,SCT,,0.00,WeatherDisplay:10.37,2013-04-21 18:27:00,
2013-04-21 11:28:00,79.4,36.0,30.06,SW,218,8.1,8.1,21,0.00,SCT,,0.00,WeatherDisplay:10.37,2013-04-21 18:28:00,
2013-04-21 11:29:00,79.4,36.0,30.07,WNW,286,8.1,8.1,21,0.00,SCT,,0.00,WeatherDisplay:10.37,2013-04-21 18:29:00,
2013-04-21 11:30:00,79.4,36.0,30.07,SW,230,1.2,1.2,21,0.00,SCT,,0.00,WeatherDisplay:10.37,2013-04-21 18:30:00,
2013-04-21 11:32:00,79.4,36.0,30.07,WSW,256,2.3,2.3,21,0.00,SCT,,0.00,WeatherDisplay:10.37,2013-04-21 18:32:00,
2013-04-21 11:33:00,79.4,34.8,30.07,WSW,249,9.2,9.2,20,0.00,SCT,,0.00,WeatherDisplay:10.37,2013-04-21 18:33:00,
2013-04-21 11:34:00,79.4,36.0,30.07,SSW,202,3.5,3.5,21,0.00,SCT,,0.00,WeatherDisplay:10.37,2013-04-21 18:34:00,
2013-04-21 11:35:00,79.6,36.2,30.07,SSW,209,1.2,1.2,21,0.00,SCT,,0.00,WeatherDisplay:10.37,2013-04-21 18:35:00,
2013-04-21 11:39:00,79.9,36.5,30.06,SSW,201,3.5,3.5,21,0.00,SCT,,0.00,WeatherDisplay:10.37,2013-04-21 18:39:00,
2013-04-21 11:40:00,80.0,36.5,30.06,SSW,201,3.5,3.5,21,0.00,SCT,,0.00,WeatherDisplay:10.37,2013-04-21 18:40:00,
2013-04-21 11:45:00,80.5,37.0,30.06,South,183,3.0,3.0,21,0.00,SCT,,0.00,WeatherDisplay:10.37,2013-04-21 18:45:00,
2013-04-21 11:46:00,80.6,38.2,30.06,SSW,201,3.0,3.0,22,0.00,SCT,,0.00,WeatherDisplay:10.37,2013-04-21 18:46:00,
2013-04-21 11:47:00,80.8,37.2,30.07,SSW,200,3.5,3.5,21,0.00,SCT,,0.00,WeatherDisplay:10.37,2013-04-21 18:47:00,
2013-04-21 11:50:00,81.2,37.5,30.06,SSW,210,3.5,3.5,21,0.00,SCT,,0.00,WeatherDisplay:10.37,2013-04-21 18:50:00,
2013-04-21 11:51:00,81.2,36.3,30.06,WNW,283,4.6,4.6,20,0.00,SCT,,0.00,WeatherDisplay:10.37,2013-04-21 18:51:00,
2013-04-21 11:52:00,81.2,36.3,30.06,WNW,283,4.6,4.6,20,0.00,SCT,,0.00,WeatherDisplay:10.37,2013-04-21 18:52:00,
2013-04-21 11:56:00,81.6,37.9,30.06,SW,232,1.2,1.2,21,0.00,SCT,,0.00,WeatherDisplay:10.37,2013-04-21 18:56:00,
2013-04-21 11:57:00,81.6,36.6,30.06,WSW,255,3.0,3.0,20,0.00,SCT,,0.00,WeatherDisplay:10.37,2013-04-21 18:57:00,
2013-04-21 11:58:00,81.7,36.7,30.06,SSW,201,2.3,2.3,20,0.00,SCT,,0.00,WeatherDisplay:10.37,2013-04-21 18:58:00,
2013-04-21 12:00:00,81.7,36.7,30.06,SW,229,1.0,3.0,20,0.00,SCT,,0.00,WeatherDisplay:10.37,2013-04-21 19:00:00,
2013-04-21 12:02:00,81.9,35.6,30.06,WSW,243,1.2,1.2,19,0.00,SCT,,0.00,WeatherDisplay:10.37,2013-04-21 19:02:00,
2013-04-21 12:05:00,81.8,36.8,30.06,SW,232,1.2,1.2,20,0.00,SCT,,0.00,WeatherDisplay:10.37,2013-04-21 19:05:00,
2013-04-21 12:06:00,81.9,38.1,30.06,South,186,3.5,3.5,21,0.00,SCT,,0.00,WeatherDisplay:10.37,2013-04-21 19:06:00,
2013-04-21 12:07:00,82.1,38.3,30.06,South,186,3.5,3.5,21,0.00,SCT,,0.00,WeatherDisplay:10.37,2013-04-21 19:07:00,
2013-04-21 12:08:00,82.3,38.4,30.06,West,259,1.2,1.2,21,0.00,SCT,,0.00,WeatherDisplay:10.37,2013-04-21 19:08:00,
2013-04-21 12:09:00,82.4,38.5,30.06,SSW,204,2.3,2.3,21,0.00,SCT,,0.00,WeatherDisplay:10.37,2013-04-21 19:09:00,
2013-04-21 12:10:00,82.4,37.3,30.06,SSW,211,1.0,3.0,20,0.00,SCT,,0.00,WeatherDisplay:10.37,2013-04-21 19:10:00,
2013-04-21 12:11:00,82.6,36.1,30.06,South,190,3.5,3.5,19,0.00,SCT,,0.00,WeatherDisplay:10.37,2013-04-21 19:11:00,
2013-04-21 12:12:00,82.7,37.5,30.06,South,190,2.3,2.3,20,0.00,SCT,,0.00,WeatherDisplay:10.37,2013-04-21 19:12:00,
2013-04-21 12:14:00,82.8,37.6,30.05,SW,215,4.6,4.6,20,0.00,SCT,,0.00,WeatherDisplay:10.37,2013-04-21 19:14:00,
2013-04-21 12:15:00,82.8,36.3,30.05,SSW,210,1.0,5.0,19,0.00,SCT,,0.00,WeatherDisplay:10.37,2013-04-21 19:15:00,
2013-04-21 12:17:00,82.9,36.4,30.05,WSW,258,2.3,2.3,19,0.00,SCT,,0.00,WeatherDisplay:10.37,2013-04-21 19:17:00,
2013-04-21 12:18:00,83.0,36.5,30.05,WSW,256,4.6,4.6,19,0.00,SCT,,0.00,WeatherDisplay:10.37,2013-04-21 19:18:00,
2013-04-21 12:20:00,83.0,37.8,30.06,SSW,196,3.5,3.5,20,0.00,SCT,,0.00,WeatherDisplay:10.37,2013-04-21 19:20:00,
2013-04-21 12:21:00,83.1,37.9,30.05,SW,227,3.5,3.5,20,0.00,SCT,,0.00,WeatherDisplay:10.37,2013-04-21 19:21:00,
2013-04-21 12:23:00,83.1,36.6,30.06,SSW,206,10.4,10.4,19,0.00,SCT,,0.00,WeatherDisplay:10.37,2013-04-21 19:23:00,
2013-04-21 12:25:00,83.0,36.5,30.05,SW,220,1.0,10.0,19,0.00,SCT,,0.00,WeatherDisplay:10.37,2013-04-21 19:25:00,
2013-04-21 12:26:00,83.0,36.5,30.05,SSW,208,3.5,3.5,19,0.00,SCT,,0.00,WeatherDisplay:10.37,2013-04-21 19:26:00,
2013-04-21 12:29:00,83.2,36.6,30.05,SSW,206,3.5,3.5,19,0.00,SCT,,0.00,WeatherDisplay:10.37,2013-04-21 19:29:00,
2013-04-21 12:30:00,83.3,38.0,30.05,SSW,198,4.6,4.6,20,0.00,SCT,,0.00,WeatherDisplay:10.37,2013-04-21 19:30:00,
2013-04-21 12:31:00,83.4,35.4,30.05,WSW,256,4.6,4.6,18,0.00,SCT,,0.00,WeatherDisplay:10.37,2013-04-21 19:31:00,
2013-04-21 12:32:00,83.5,36.9,30.05,SSW,196,4.6,4.6,19,0.00,SCT,,0.00,WeatherDisplay:10.37,2013-04-21 19:32:00,
2013-04-21 12:34:00,83.7,37.0,30.05,SSW,195,2.3,2.3,19,0.00,SCT,,0.00,WeatherDisplay:10.37,2013-04-21 19:34:00,
2013-04-21 12:36:00,84.1,36.0,30.05,ESE,122,1.2,1.2,18,0.00,SCT,,0.00,WeatherDisplay:10.37,2013-04-21 19:36:00,
2013-04-21 12:37:00,84.1,36.0,30.05,South,183,1.2,1.2,18,0.00,SCT,,0.00,WeatherDisplay:10.37,2013-04-21 19:37:00,
2013-04-21 12:38:00,84.2,34.6,30.04,West,272,1.2,1.2,17,0.00,SCT,,0.00,WeatherDisplay:10.37,2013-04-21 19:38:00,
2013-04-21 12:40:00,84.1,34.6,30.05,WNW,296,5.8,5.8,17,0.00,SCT,,0.00,WeatherDisplay:10.37,2013-04-21 19:40:00,
2013-04-21 12:41:00,84.0,34.5,30.05,SW,230,3.5,3.5,17,0.00,SCT,,0.00,WeatherDisplay:10.37,2013-04-21 19:41:00,
2013-04-21 12:42:00,83.9,34.4,30.04,SW,226,3.5,3.5,17,0.00,SCT,,0.00,WeatherDisplay:10.37,2013-04-21 19:42:00,
2013-04-21 12:43:00,83.9,34.4,30.04,West,271,3.5,3.5,17,0.00,SCT,,0.00,WeatherDisplay:10.37,2013-04-21 19:43:00,
2013-04-21 12:45:00,83.7,34.2,30.05,WSW,244,2.3,2.3,17,0.00,SCT,,0.00,WeatherDisplay:10.37,2013-04-21 19:45:00,
2013-04-21 12:47:00,83.9,35.8,30.04,SSW,196,3.5,3.5,18,0.00,SCT,,0.00,WeatherDisplay:10.37,2013-04-21 19:47:00,
2013-04-21 12:48:00,83.9,35.8,30.04,SSW,196,3.5,3.5,18,0.00,SCT,,0.00,WeatherDisplay:10.37,2013-04-21 19:48:00,
2013-04-21 12:50:00,84.1,36.0,30.04,South,187,2.3,2.3,18,0.00,SCT,,0.00,WeatherDisplay:10.37,2013-04-21 19:50:00,
2013-04-21 12:51:00,84.3,36.2,30.04,SSE,161,2.0,2.0,18,0.00,SCT,,0.00,WeatherDisplay:10.37,2013-04-21 19:51:00,
2013-04-21 12:53:00,84.6,36.4,30.04,ESE,109,3.5,3.5,18,0.00,SCT,,0.00,WeatherDisplay:10.37,2013-04-21 19:53:00,
2013-04-21 12:54:00,84.9,35.2,30.04,South,176,1.2,1.2,17,0.00,SCT,,0.00,WeatherDisplay:10.37,2013-04-21 19:54:00,
2013-04-21 12:55:00,85.0,35.3,30.04,South,176,1.2,1.2,17,0.00,SCT,,0.00,WeatherDisplay:10.37,2013-04-21 19:55:00,
2013-04-21 12:56:00,85.1,35.4,30.04,South,177,1.2,1.2,17,0.00,SCT,,0.00,WeatherDisplay:10.37,2013-04-21 19:56:00,
2013-04-21 12:58:00,85.3,37.0,30.04,ESE,103,1.2,1.2,18,0.00,SCT,,0.00,WeatherDisplay:10.37,2013-04-21 19:58:00,
2013-04-21 12:59:00,85.3,37.0,30.04,ESE,103,1.2,1.2,18,0.00,SCT,,0.00,WeatherDisplay:10.37,2013-04-21 19:59:00,
2013-04-21 13:02:00,85.6,37.2,30.04,West,280,2.3,2.3,18,0.00,SCT,,0.00,WeatherDisplay:10.37,2013-04-21 20:02:00,
2013-04-21 13:04:00,85.8,35.9,30.04,SSW,204,3.5,3.5,17,0.00,SCT,,0.00,WeatherDisplay:10.37,2013-04-21 20:04:00,
2013-04-21 13:05:00,85.8,36.0,30.03,South,191,0.0,3.0,17,0.00,SCT,,0.00,WeatherDisplay:10.37,2013-04-21 20:05:00,
2013-04-21 13:07:00,86.1,36.2,30.03,South,190,3.5,3.5,17,0.00,SCT,,0.00,WeatherDisplay:10.37,2013-04-21 20:07:00,
2013-04-21 13:09:00,85.9,36.0,30.03,WSW,240,3.5,3.5,17,0.00,SCT,,0.00,WeatherDisplay:10.37,2013-04-21 20:09:00,
2013-04-21 13:10:00,85.8,36.0,30.03,SW,223,1.0,4.0,17,0.00,SCT,,0.00,WeatherDisplay:10.37,2013-04-21 20:10:00,
2013-04-21 13:12:00,85.7,35.9,30.03,South,180,1.2,1.2,17,0.00,SCT,,0.00,WeatherDisplay:10.37,2013-04-21 20:12:00,
2013-04-21 13:13:00,85.8,35.9,30.03,SE,144,2.3,2.3,17,0.00,SCT,,0.00,WeatherDisplay:10.37,2013-04-21 20:13:00,
2013-04-21 13:14:00,86.0,36.1,30.03,SE,130,2.3,2.3,17,0.00,SCT,,0.00,WeatherDisplay:10.37,2013-04-21 20:14:00,
2013-04-21 13:15:00,86.1,37.6,30.03,SE,143,3.0,3.0,18,0.00,SCT,,0.00,WeatherDisplay:10.37,2013-04-21 20:15:00,
2013-04-21 13:17:00,86.5,38.0,30.03,SSE,148,1.2,1.2,18,0.00,SCT,,0.00,WeatherDisplay:10.37,2013-04-21 20:17:00,
2013-04-21 13:19:00,86.6,36.6,30.03,WSW,255,1.2,1.2,17,0.00,SCT,,0.00,WeatherDisplay:10.37,2013-04-21 20:19:00,
2013-04-21 13:20:00,86.6,36.6,30.03,South,169,0.0,3.0,17,0.00,SCT,,0.00,WeatherDisplay:10.37,2013-04-21 20:20:00,
2013-04-21 13:21:00,86.5,36.5,30.03,SSW,212,3.0,3.0,17,0.00,SCT,,0.00,WeatherDisplay:10.37,2013-04-21 20:21:00,
2013-04-21 13:23:00,86.5,36.5,30.03,WSW,251,3.5,3.5,17,0.00,SCT,,0.00,WeatherDisplay:10.37,2013-04-21 20:23:00,
2013-04-21 13:25:00,86.4,36.4,30.03,SW,224,1.0,4.0,17,0.00,SCT,,0.00,WeatherDisplay:10.37,2013-04-21 20:25:00,
2013-04-21 13:27:00,86.2,36.3,30.03,SSW,199,2.3,2.3,17,0.00,SCT,,0.00,WeatherDisplay:10.37,2013-04-21 20:27:00,
2013-04-21 13:28:00,86.2,36.3,30.03,WSW,245,3.5,3.5,17,0.00,SCT,,0.00,WeatherDisplay:10.37,2013-04-21 20:28:00,
2013-04-21 13:30:00,85.8,35.9,30.03,WSW,256,2.3,0.0,17,0.00,SCT,,0.00,WeatherDisplay:10.37,2013-04-21 20:30:00,
2013-04-21 13:31:00,85.7,35.9,30.02,WSW,256,0.0,0.0,17,0.00,SCT,,0.00,WeatherDisplay:10.37,2013-04-21 20:31:00,
2013-04-21 13:32:00,85.7,35.9,30.02,WSW,256,0.0,0.2,17,0.00,SCT,,0.00,WeatherDisplay:10.37,2013-04-21 20:32:00,
2013-04-21 13:35:00,85.9,36.0,30.03,West,261,2.3,2.3,17,0.00,SCT,,0.00,WeatherDisplay:10.37,2013-04-21 20:35:00,
2013-04-21 13:36:00,85.9,36.0,30.02,WSW,237,2.3,2.3,17,0.00,SCT,,0.00,WeatherDisplay:10.37,2013-04-21 20:36:00,
2013-04-21 13:37:00,85.9,36.0,30.03,SW,234,2.3,2.3,17,0.00,SCT,,0.00,WeatherDisplay:10.37,2013-04-21 20:37:00,
2013-04-21 13:40:00,86.4,36.4,30.02,South,170,2.3,2.3,17,0.00,SCT,,0.00,WeatherDisplay:10.37,2013-04-21 20:40:00,
2013-04-21 13:41:00,86.7,36.7,30.02,SE,146,1.2,1.2,17,0.00,SCT,,0.00,WeatherDisplay:10.37,2013-04-21 20:41:00,
2013-04-21 13:42:00,86.8,36.7,30.02,SW,217,2.3,2.3,17,0.00,SCT,,0.00,WeatherDisplay:10.37,2013-04-21 20:42:00,
2013-04-21 13:44:00,87.2,37.1,30.02,SSW,198,5.0,5.0,17,0.00,SCT,,0.00,WeatherDisplay:10.37,2013-04-21 20:44:00,
2013-04-21 13:46:00,87.4,37.2,30.02,South,178,3.5,3.5,17,0.00,SCT,,0.00,WeatherDisplay:10.37,2013-04-21 20:46:00,
2013-04-21 13:47:00,87.4,37.2,30.02,WSW,248,2.3,2.3,17,0.00,SCT,,0.00,WeatherDisplay:10.37,2013-04-21 20:47:00,
2013-04-21 13:48:00,87.5,37.3,30.02,WSW,245,2.3,2.3,17,0.00,SCT,,0.00,WeatherDisplay:10.37,2013-04-21 20:48:00,
2013-04-21 13:52:00,87.6,37.4,30.02,WSW,237,1.2,1.2,17,0.00,SCT,,0.00,WeatherDisplay:10.37,2013-04-21 20:52:00,
2013-04-21 13:53:00,87.7,37.5,30.02,WSW,237,0.0,0.0,17,0.00,SCT,,0.00,WeatherDisplay:10.37,2013-04-21 20:53:00,
2013-04-21 13:57:00,87.5,34.1,30.02,WSW,238,3.5,3.5,15,0.00,SCT,,0.00,WeatherDisplay:10.37,2013-04-21 20:57:00,
2013-04-21 13:58:00,87.5,34.1,30.02,WSW,237,3.5,3.5,15,0.00,SCT,,0.00,WeatherDisplay:10.37,2013-04-21 20:58:00,
2013-04-21 13:59:00,87.3,35.6,30.02,WSW,237,1.2,0.0,16,0.00,SCT,,0.00,WeatherDisplay:10.37,2013-04-21 20:59:00,
2013-04-21 14:00:00,87.3,35.6,30.02,WSW,237,1.2,0.0,16,0.00,SCT,,0.00,WeatherDisplay:10.37,2013-04-21 21:00:00,
2013-04-21 14:03:00,87.2,33.9,30.02,SW,219,5.8,5.8,15,0.00,SCT,,0.00,WeatherDisplay:10.37,2013-04-21 21:03:00,
2013-04-21 14:04:00,87.1,35.5,30.02,SW,222,1.2,1.2,16,0.00,SCT,,0.00,WeatherDisplay:10.37,2013-04-21 21:04:00,
2013-04-21 14:05:00,87.1,35.5,30.02,SW,230,0.0,6.0,16,0.00,SCT,,0.00,WeatherDisplay:10.37,2013-04-21 21:05:00,
2013-04-21 14:08:00,87.3,37.1,30.02,North,349,2.0,2.0,17,0.00,SCT,,0.00,WeatherDisplay:10.37,2013-04-21 21:08:00,
2013-04-21 14:09:00,87.4,37.2,30.02,WSW,240,2.3,2.3,17,0.00,SCT,,0.00,WeatherDisplay:10.37,2013-04-21 21:09:00,
2013-04-21 14:10:00,87.4,37.2,30.02,SW,223,2.3,2.3,17,0.00,SCT,,0.00,WeatherDisplay:10.37,2013-04-21 21:10:00,
2013-04-21 14:14:00,87.6,37.4,30.02,South,174,1.2,0.0,17,0.00,SCT,,0.00,WeatherDisplay:10.37,2013-04-21 21:14:00,
2013-04-21 14:15:00,87.8,37.6,30.02,WSW,239,1.2,1.2,17,0.00,SCT,,0.00,WeatherDisplay:10.37,2013-04-21 21:15:00,
2013-04-21 14:16:00,87.8,37.6,30.02,WSW,241,1.2,1.2,17,0.00,SCT,,0.00,WeatherDisplay:10.37,2013-04-21 21:16:00,
2013-04-21 14:19:00,88.1,34.6,30.02,WSW,256,2.3,2.3,15,0.00,SCT,,0.00,WeatherDisplay:10.37,2013-04-21 21:19:00,
2013-04-21 14:21:00,87.8,36.0,30.02,WSW,246,3.5,3.5,16,0.00,SCT,,0.00,WeatherDisplay:10.37,2013-04-21 21:21:00,
2013-04-21 14:25:00,88.0,36.2,30.01,SSW,192,3.5,3.5,16,0.00,SCT,,0.00,WeatherDisplay:10.37,2013-04-21 21:25:00,
2013-04-21 14:26:00,88.1,36.3,30.01,SSW,192,3.5,0.0,16,0.00,SCT,,0.00,WeatherDisplay:10.37,2013-04-21 21:26:00,
2013-04-21 14:27:00,88.2,36.3,30.02,SSW,206,0.0,0.3,16,0.00,SCT,,0.00,WeatherDisplay:10.37,2013-04-21 21:27:00,
2013-04-21 14:31:00,88.4,36.5,30.01,SSW,199,3.5,3.5,16,0.00,SCT,,0.00,WeatherDisplay:10.37,2013-04-21 21:31:00,
2013-04-21 14:32:00,88.4,36.5,30.02,SSW,198,3.5,3.5,16,0.00,SCT,,0.00,WeatherDisplay:10.37,2013-04-21 21:32:00,
2013-04-21 14:33:00,88.4,36.5,30.02,SSW,200,3.5,3.5,16,0.00,SCT,,0.00,WeatherDisplay:10.37,2013-04-21 21:33:00,
2013-04-21 14:36:00,88.1,34.6,30.01,WSW,255,5.8,5.8,15,0.00,SCT,,0.00,WeatherDisplay:10.37,2013-04-21 21:36:00,
2013-04-21 14:37:00,88.0,34.5,30.01,West,270,3.5,3.5,15,0.00,SCT,,0.00,WeatherDisplay:10.37,2013-04-21 21:37:00,
2013-04-21 14:38:00,88.0,36.2,30.01,West,274,3.5,3.5,16,0.00,SCT,,0.00,WeatherDisplay:10.37,2013-04-21 21:38:00,
2013-04-21 14:39:00,88.0,36.2,30.02,West,274,3.5,3.5,16,0.00,SCT,,0.00,WeatherDisplay:10.37,2013-04-21 21:39:00,
2013-04-21 14:41:00,88.2,36.3,30.01,South,188,3.5,3.5,16,0.00,SCT,,0.00,WeatherDisplay:10.37,2013-04-21 21:41:00,
2013-04-21 14:42:00,88.3,38.0,30.01,SSE,155,1.2,1.2,17,0.00,SCT,,0.00,WeatherDisplay:10.37,2013-04-21 21:42:00,
2013-04-21 14:43:00,88.3,38.0,30.01,SSE,157,1.2,1.2,17,0.00,SCT,,0.00,WeatherDisplay:10.37,2013-04-21 21:43:00,
2013-04-21 14:44:00,88.4,34.9,30.01,SE,145,3.5,3.5,15,0.00,SCT,,0.00,WeatherDisplay:10.37,2013-04-21 21:44:00,
2013-04-21 14:46:00,88.7,35.1,30.01,SSE,168,1.2,1.2,15,0.00,SCT,,0.00,WeatherDisplay:10.37,2013-04-21 21:46:00,
2013-04-21 14:48:00,88.9,35.3,30.01,SSW,197,3.0,3.0,15,0.00,SCT,,0.00,WeatherDisplay:10.37,2013-04-21 21:48:00,
2013-04-21 14:49:00,88.9,35.3,30.01,SSW,195,3.5,3.5,15,0.00,SCT,,0.00,WeatherDisplay:10.37,2013-04-21 21:49:00,
2013-04-21 14:50:00,88.9,35.3,30.01,SSW,195,3.5,0.0,15,0.00,SCT,,0.00,WeatherDisplay:10.37,2013-04-21 21:50:00,
2013-04-21 14:52:00,88.9,35.3,30.01,SW,230,3.5,3.5,15,0.00,SCT,,0.00,WeatherDisplay:10.37,2013-04-21 21:52:00,
2013-04-21 14:53:00,88.9,35.3,30.01,SSW,210,1.2,1.2,15,0.00,SCT,,0.00,WeatherDisplay:10.37,2013-04-21 21:53:00,
2013-04-21 14:54:00,88.9,35.3,30.01,NW,305,3.5,3.5,15,0.00,SCT,,0.00,WeatherDisplay:10.37,2013-04-21 21:54:00,
2013-04-21 14:56:00,89.0,35.3,30.01,East,96,1.2,1.2,15,0.00,SCT,,0.00,WeatherDisplay:10.37,2013-04-21 21:56:00,
2013-04-21 14:57:00,89.0,37.0,30.01,SSW,205,2.3,2.3,16,0.00,SCT,,0.00,WeatherDisplay:10.37,2013-04-21 21:57:00,
2013-04-21 14:58:00,89.0,35.3,30.01,WSW,248,2.3,2.3,15,0.00,SCT,,0.00,WeatherDisplay:10.37,2013-04-21 21:58:00,
2013-04-21 14:59:00,88.9,35.3,30.01,SSW,202,3.5,3.5,15,0.00,SCT,,0.00,WeatherDisplay:10.37,2013-04-21 21:59:00,
2013-04-21 15:00:00,88.9,35.2,30.01,SSW,212,1.0,4.0,15,0.00,SCT,,0.00,WeatherDisplay:10.37,2013-04-21 22:00:00,
2013-04-21 15:02:00,88.8,36.8,30.01,SSW,200,2.3,2.3,16,0.00,SCT,,0.00,WeatherDisplay:10.37,2013-04-21 22:02:00,
2013-04-21 15:03:00,88.8,35.2,30.01,SSW,199,3.5,3.5,15,0.00,SCT,,0.00,WeatherDisplay:10.37,2013-04-21 22:03:00,
2013-04-21 15:04:00,88.8,35.2,30.01,SSW,201,2.3,2.3,15,0.00,SCT,,0.00,WeatherDisplay:10.37,2013-04-21 22:04:00,
2013-04-21 15:05:00,88.7,35.1,30.01,SSW,207,2.3,2.3,15,0.00,SCT,,0.00,WeatherDisplay:10.37,2013-04-21 22:05:00,
2013-04-21 15:08:00,88.8,35.2,30.01,SSW,193,3.5,3.5,15,0.00,SCT,,0.00,WeatherDisplay:10.37,2013-04-21 22:08:00,
2013-04-21 15:09:00,88.7,35.1,30.01,SSW,194,3.0,3.0,15,0.00,SCT,,0.00,WeatherDisplay:10.37,2013-04-21 22:09:00,
2013-04-21 15:10:00,88.8,35.2,30.01,SSW,198,1.0,4.0,15,0.00,SCT,,0.00,WeatherDisplay:10.37,2013-04-21 22:10:00,
2013-04-21 15:13:00,88.9,38.4,30.01,SSE,155,1.2,1.2,17,0.00,SCT,,0.00,WeatherDisplay:10.37,2013-04-21 22:13:00,
2013-04-21 15:14:00,89.1,38.6,30.01,SW,215,1.2,1.2,17,0.00,SCT,,0.00,WeatherDisplay:10.37,2013-04-21 22:14:00,
2013-04-21 15:15:00,89.1,38.6,30.00,South,190,0.0,3.0,17,0.00,SCT,,0.00,WeatherDisplay:10.37,2013-04-21 22:15:00,
2013-04-21 15:19:00,88.7,36.7,30.00,WSW,256,3.5,3.5,16,0.00,SCT,,0.00,WeatherDisplay:10.37,2013-04-21 22:19:00,
2013-04-21 15:20:00,88.6,38.2,30.00,SSW,198,3.5,3.5,17,0.00,SCT,,0.00,WeatherDisplay:10.37,2013-04-21 22:20:00,
2013-04-21 15:21:00,88.5,36.6,30.00,SSW,198,3.5,3.5,16,0.00,SCT,,0.00,WeatherDisplay:10.37,2013-04-21 22:21:00,
2013-04-21 15:24:00,88.3,38.0,30.00,SW,233,1.2,1.2,17,0.00,SCT,,0.00,WeatherDisplay:10.37,2013-04-21 22:24:00,
2013-04-21 15:25:00,88.3,38.0,30.00,WSW,238,2.3,2.3,17,0.00,SCT,,0.00,WeatherDisplay:10.37,2013-04-21 22:25:00,
2013-04-21 15:26:00,88.2,37.9,30.00,WSW,247,2.3,2.3,17,0.00,SCT,,0.00,WeatherDisplay:10.37,2013-04-21 22:26:00,
2013-04-21 15:27:00,88.0,37.7,30.00,WSW,245,5.8,5.8,17,0.00,SCT,,0.00,WeatherDisplay:10.37,2013-04-21 22:27:00,
2013-04-21 15:30:00,87.6,37.4,30.00,SW,218,2.0,2.0,17,0.00,SCT,,0.00,WeatherDisplay:10.37,2013-04-21 22:30:00,
2013-04-21 15:31:00,87.5,37.3,30.00,WSW,240,7.0,7.0,17,0.00,SCT,,0.00,WeatherDisplay:10.37,2013-04-21 22:31:00,
2013-04-21 15:32:00,87.4,35.7,30.00,SSW,203,8.1,8.1,16,0.00,SCT,,0.00,WeatherDisplay:10.37,2013-04-21 22:32:00,
2013-04-21 15:35:00,87.2,37.1,30.00,SW,219,1.0,8.0,17,0.00,SCT,,0.00,WeatherDisplay:10.37,2013-04-21 22:35:00,
2013-04-21 15:36:00,87.3,37.1,30.00,SSW,203,4.0,4.0,17,0.00,SCT,,0.00,WeatherDisplay:10.37,2013-04-21 22:36:00,
2013-04-21 15:37:00,87.5,37.3,30.00,WSW,253,5.8,5.8,17,0.00,SCT,,0.00,WeatherDisplay:10.37,2013-04-21 22:37:00,
2013-04-21 15:40:00,87.5,37.3,30.00,WSW,243,3.5,3.5,17,0.00,SCT,,0.00,WeatherDisplay:10.37,2013-04-21 22:40:00,
2013-04-21 15:41:00,87.5,37.3,30.00,SSW,213,2.3,2.3,17,0.00,SCT,,0.00,WeatherDisplay:10.37,2013-04-21 22:41:00,
2013-04-21 15:42:00,87.6,37.4,30.00,SSW,213,1.2,1.2,17,0.00,SCT,,0.00,WeatherDisplay:10.37,2013-04-21 22:42:00,
2013-04-21 15:43:00,87.7,37.5,30.00,SSW,193,1.2,1.2,17,0.00,SCT,,0.00,WeatherDisplay:10.37,2013-04-21 22:43:00,
2013-04-21 15:46:00,87.9,37.6,30.00,WSW,250,2.3,2.3,17,0.00,SCT,,0.00,WeatherDisplay:10.37,2013-04-21 22:46:00,
2013-04-21 15:47:00,87.9,37.6,29.99,WSW,250,2.3,2.3,17,0.00,SCT,,0.00,WeatherDisplay:10.37,2013-04-21 22:47:00,
2013-04-21 15:48:00,88.0,37.7,30.00,WSW,250,2.3,2.3,17,0.00,SCT,,0.00,WeatherDisplay:10.37,2013-04-21 22:48:00,
2013-04-21 15:49:00,88.1,37.8,30.00,WSW,245,2.3,2.3,17,0.00,SCT,,0.00,WeatherDisplay:10.37,2013-04-21 22:49:00,
2013-04-21 15:50:00,88.3,38.0,30.00,SSW,204,1.2,1.2,17,0.00,SCT,,0.00,WeatherDisplay:10.37,2013-04-21 22:50:00,
2013-04-21 15:51:00,88.4,36.5,30.00,SSW,204,1.2,1.2,16,0.00,SCT,,0.00,WeatherDisplay:10.37,2013-04-21 22:51:00,
2013-04-21 15:52:00,88.3,36.4,30.00,West,279,2.3,2.3,16,0.00,SCT,,0.00,WeatherDisplay:10.37,2013-04-21 22:52:00,
2013-04-21 15:53:00,88.3,36.4,30.00,West,275,1.2,1.2,16,0.00,SCT,,0.00,WeatherDisplay:10.37,2013-04-21 22:53:00,
2013-04-21 15:55:00,88.4,38.0,29.99,SW,214,3.5,3.5,17,0.00,SCT,,0.00,WeatherDisplay:10.37,2013-04-21 22:55:00,
2013-04-21 15:57:00,88.6,38.2,29.99,SW,225,2.0,2.0,17,0.00,SCT,,0.00,WeatherDisplay:10.37,2013-04-21 22:57:00,
2013-04-21 15:58:00,88.8,38.4,30.00,South,180,3.5,3.5,17,0.00,SCT,,0.00,WeatherDisplay:10.37,2013-04-21 22:58:00,
2013-04-21 16:00:00,89.0,38.5,30.00,SE,145,1.0,1.0,17,0.00,SCT,,0.00,WeatherDisplay:10.37,2013-04-21 23:00:00,
2013-04-21 16:02:00,89.1,40.1,29.99,SSE,151,1.2,1.2,18,0.00,SCT,,0.00,WeatherDisplay:10.37,2013-04-21 23:02:00,
2013-04-21 16:04:00,89.2,40.1,29.99,SSW,201,1.2,1.2,18,0.00,SCT,,0.00,WeatherDisplay:10.37,2013-04-21 23:04:00,
2013-04-21 16:05:00,89.1,40.1,29.99,SSW,209,2.3,2.3,18,0.00,SCT,,0.00,WeatherDisplay:10.37,2013-04-21 23:05:00,
2013-04-21 16:06:00,89.0,41.4,30.00,SSW,192,5.8,5.8,19,0.00,SCT,,0.00,WeatherDisplay:10.37,2013-04-21 23:06:00,
2013-04-21 16:07:00,88.8,39.8,29.99,SW,218,5.8,5.8,18,0.00,SCT,,0.00,WeatherDisplay:10.37,2013-04-21 23:07:00,
2013-04-21 16:08:00,88.8,39.8,29.99,SW,218,5.8,5.8,18,0.00,SCT,,0.00,WeatherDisplay:10.37,2013-04-21 23:08:00,
2013-04-21 16:09:00,88.6,42.4,29.99,SSW,210,2.3,2.3,20,0.00,SCT,,0.00,WeatherDisplay:10.37,2013-04-21 23:09:00,
2013-04-21 16:11:00,88.6,43.7,30.00,SSW,204,3.0,3.0,21,0.00,SCT,,0.00,WeatherDisplay:10.37,2013-04-21 23:11:00,
2013-04-21 16:13:00,88.5,43.6,29.99,ESE,116,2.3,2.3,21,0.00,SCT,,0.00,WeatherDisplay:10.37,2013-04-21 23:13:00,
2013-04-21 16:14:00,88.5,43.6,29.99,SSW,197,3.5,3.5,21,0.00,SCT,,0.00,WeatherDisplay:10.37,2013-04-21 23:14:00,
2013-04-21 16:16:00,88.4,43.5,29.99,SSW,201,2.3,2.3,21,0.00,SCT,,0.00,WeatherDisplay:10.37,2013-04-21 23:16:00,
2013-04-21 16:18:00,88.5,43.6,29.99,SSW,193,3.5,3.5,21,0.00,SCT,,0.00,WeatherDisplay:10.37,2013-04-21 23:18:00,
2013-04-21 16:19:00,88.5,43.6,29.99,SSW,193,1.2,1.2,21,0.00,SCT,,0.00,WeatherDisplay:10.37,2013-04-21 23:19:00,
2013-04-21 16:20:00,88.6,43.7,29.99,SSW,193,2.3,2.3,21,0.00,SCT,,0.00,WeatherDisplay:10.37,2013-04-21 23:20:00,
2013-04-21 16:21:00,88.5,43.6,29.99,SW,216,2.3,2.3,21,0.00,SCT,,0.00,WeatherDisplay:10.37,2013-04-21 23:21:00,
2013-04-21 16:22:00,88.4,43.5,29.99,SW,216,2.3,2.3,21,0.00,SCT,,0.00,WeatherDisplay:10.37,2013-04-21 23:22:00,
2013-04-21 16:24:00,88.4,43.5,29.99,South,179,3.5,3.5,21,0.00,SCT,,0.00,WeatherDisplay:10.37,2013-04-21 23:24:00,
2013-04-21 16:25:00,88.5,43.6,29.99,SW,215,3.5,3.5,21,0.00,SCT,,0.00,WeatherDisplay:10.37,2013-04-21 23:25:00,
2013-04-21 16:27:00,88.5,43.6,29.99,SSW,193,1.2,0.0,21,0.00,SCT,,0.00,WeatherDisplay:10.37,2013-04-21 23:27:00,
2013-04-21 16:28:00,88.4,43.5,29.99,SE,145,1.2,1.2,21,0.00,SCT,,0.00,WeatherDisplay:10.37,2013-04-21 23:28:00,
2013-04-21 16:29:00,88.4,44.7,29.99,South,173,1.2,1.2,22,0.00,SCT,,0.00,WeatherDisplay:10.37,2013-04-21 23:29:00,
2013-04-21 16:30:00,88.4,44.7,29.99,SW,230,1.2,1.2,22,0.00,SCT,,0.00,WeatherDisplay:10.37,2013-04-21 23:30:00,
2013-04-21 16:31:00,88.4,43.5,29.99,SW,217,1.2,1.2,21,0.00,SCT,,0.00,WeatherDisplay:10.37,2013-04-21 23:31:00,
2013-04-21 16:33:00,88.5,44.8,29.99,South,178,3.5,3.5,22,0.00,SCT,,0.00,WeatherDisplay:10.37,2013-04-21 23:33:00,
2013-04-21 16:34:00,88.5,44.8,29.99,South,176,3.5,3.5,22,0.00,SCT,,0.00,WeatherDisplay:10.37,2013-04-21 23:34:00,
2013-04-21 16:36:00,88.3,42.1,29.99,SSE,152,1.2,0.0,20,0.00,SCT,,0.00,WeatherDisplay:10.37,2013-04-21 23:36:00,
2013-04-21 16:39:00,87.9,43.1,29.99,WSW,246,3.5,3.5,21,0.00,SCT,,0.00,WeatherDisplay:10.37,2013-04-21 23:39:00,
2013-04-21 16:40:00,87.9,43.1,29.99,SSW,201,3.5,3.5,21,0.00,SCT,,0.00,WeatherDisplay:10.37,2013-04-21 23:40:00,
2013-04-21 16:41:00,87.9,43.1,29.99,SSW,200,3.5,3.5,21,0.00,SCT,,0.00,WeatherDisplay:10.37,2013-04-21 23:41:00,
2013-04-21 16:45:00,87.8,41.7,29.99,SSW,193,2.3,2.3,20,0.00,SCT,,0.00,WeatherDisplay:10.37,2013-04-21 23:45:00,
2013-04-21 16:46:00,87.8,41.7,29.99,SSW,192,2.3,2.3,20,0.00,SCT,,0.00,WeatherDisplay:10.37,2013-04-21 23:46:00,
2013-04-21 16:50:00,87.5,41.5,29.99,South,188,1.2,1.2,20,0.00,SCT,,0.00,WeatherDisplay:10.37,2013-04-21 23:50:00,
2013-04-21 16:51:00,87.6,41.6,29.99,South,186,1.2,1.2,20,0.00,SCT,,0.00,WeatherDisplay:10.37,2013-04-21 23:51:00,
2013-04-21 16:52:00,87.6,41.6,29.98,South,187,1.2,1.2,20,0.00,SCT,,0.00,WeatherDisplay:10.37,2013-04-21 23:52:00,
2013-04-21 16:56:00,87.7,40.3,29.98,WSW,247,3.5,3.5,19,0.00,SCT,,0.00,WeatherDisplay:10.37,2013-04-21 23:56:00,
2013-04-21 16:57:00,87.6,40.2,29.98,WSW,239,4.0,4.0,19,0.00,SCT,,0.00,WeatherDisplay:10.37,2013-04-21 23:57:00,
2013-04-21 16:58:00,87.5,40.2,29.98,WSW,257,5.8,5.8,19,0.00,SCT,,0.00,WeatherDisplay:10.37,2013-04-21 23:58:00,
2013-04-21 17:00:00,87.3,40.0,29.98,SW,215,5.8,5.8,19,0.00,SCT,,0.00,WeatherDisplay:10.37,2013-04-22 00:00:00,
2013-04-21 17:01:00,87.2,39.9,29.98,WSW,244,4.6,4.6,19,0.00,SCT,,0.00,WeatherDisplay:10.37,2013-04-22 00:01:00,
2013-04-21 17:02:00,87.2,39.9,29.98,WSW,254,4.6,4.6,19,0.00,SCT,,0.00,WeatherDisplay:10.37,2013-04-22 00:02:00,
2013-04-21 17:03:00,87.0,39.7,29.98,WSW,239,3.5,3.5,19,0.00,SCT,,0.00,WeatherDisplay:10.37,2013-04-22 00:03:00,
2013-04-21 17:06:00,86.9,39.7,29.98,SSW,205,3.5,3.5,19,0.00,SCT,,0.00,WeatherDisplay:10.37,2013-04-22 00:06:00,
2013-04-21 17:07:00,86.9,39.7,29.98,SSW,207,3.5,3.5,19,0.00,SCT,,0.00,WeatherDisplay:10.37,2013-04-22 00:07:00,
2013-04-21 17:08:00,86.9,39.7,29.98,WSW,250,4.0,4.0,19,0.00,SCT,,0.00,WeatherDisplay:10.37,2013-04-22 00:08:00,
2013-04-21 17:10:00,86.6,39.4,29.98,SSW,208,2.3,2.3,19,0.00,SCT,,0.00,WeatherDisplay:10.37,2013-04-22 00:10:00,
2013-04-21 17:11:00,86.7,39.5,29.98,SSW,205,2.3,2.3,19,0.00,SCT,,0.00,WeatherDisplay:10.37,2013-04-22 00:11:00,
2013-04-21 17:12:00,86.7,39.5,29.98,SSW,195,2.3,2.3,19,0.00,SCT,,0.00,WeatherDisplay:10.37,2013-04-22 00:12:00,
2013-04-21 17:13:00,86.8,39.6,29.98,SSW,199,5.8,5.8,19,0.00,SCT,,0.00,WeatherDisplay:10.37,2013-04-22 00:13:00,
2013-04-21 17:17:00,87.1,39.8,29.98,SSE,156,2.3,2.3,19,0.00,SCT,,0.00,WeatherDisplay:10.37,2013-04-22 00:17:00,
2013-04-21 17:18:00,87.0,39.7,29.98,WSW,252,2.3,2.3,19,0.00,SCT,,0.00,WeatherDisplay:10.37,2013-04-22 00:18:00,
2013-04-21 17:22:00,86.9,41.0,29.98,South,187,3.5,0.0,20,0.00,SCT,,0.00,WeatherDisplay:10.37,2013-04-22 00:22:00,
2013-04-21 17:23:00,87.0,39.7,29.98,South,187,1.2,1.2,19,0.00,SCT,,0.00,WeatherDisplay:10.37,2013-04-22 00:23:00,
2013-04-21 17:24:00,87.0,39.7,29.98,South,187,1.2,0.0,19,0.00,SCT,,0.00,WeatherDisplay:10.37,2013-04-22 00:24:00,
2013-04-21 17:27:00,87.2,39.9,29.98,SSW,200,2.0,2.0,19,0.00,SCT,,0.00,WeatherDisplay:10.37,2013-04-22 00:27:00,
2013-04-21 17:28:00,87.2,39.9,29.98,SW,217,3.5,3.5,19,0.00,SCT,,0.00,WeatherDisplay:10.37,2013-04-22 00:28:00,
2013-04-21 17:29:00,87.2,39.9,29.98,SW,217,3.5,3.5,19,0.00,SCT,,0.00,WeatherDisplay:10.37,2013-04-22 00:29:00,
2013-04-21 17:32:00,87.2,38.5,29.98,WSW,257,2.3,2.3,18,0.00,SCT,,0.00,WeatherDisplay:10.37,2013-04-22 00:32:00,
2013-04-21 17:34:00,86.8,39.6,29.98,WSW,257,2.3,0.0,19,0.00,SCT,,0.00,WeatherDisplay:10.37,2013-04-22 00:34:00,
2013-04-21 17:35:00,86.8,39.6,29.98,SW,229,0.0,2.0,19,0.00,SCT,,0.00,WeatherDisplay:10.37,2013-04-22 00:35:00,
2013-04-21 17:38:00,86.5,39.3,29.98,WSW,257,0.0,0.2,19,0.00,SCT,,0.00,WeatherDisplay:10.37,2013-04-22 00:38:00,
2013-04-21 17:39:00,86.5,39.3,29.98,SSW,202,0.0,0.1,19,0.00,SCT,,0.00,WeatherDisplay:10.37,2013-04-22 00:39:00,
2013-04-21 17:40:00,86.5,39.3,29.98,SSW,201,1.2,1.2,19,0.00,SCT,,0.00,WeatherDisplay:10.37,2013-04-22 00:40:00,
2013-04-21 17:41:00,86.6,39.4,29.98,SSW,201,1.2,1.2,19,0.00,SCT,,0.00,WeatherDisplay:10.37,2013-04-22 00:41:00,
2013-04-21 17:43:00,86.6,39.4,29.98,WSW,239,2.3,2.3,19,0.00,SCT,,0.00,WeatherDisplay:10.37,2013-04-22 00:43:00,
2013-04-21 17:45:00,86.6,40.7,29.98,SSW,213,1.0,3.0,20,0.00,SCT,,0.00,WeatherDisplay:10.37,2013-04-22 00:45:00,
2013-04-21 17:47:00,86.6,40.7,29.98,SSW,200,4.6,4.6,20,0.00,SCT,,0.00,WeatherDisplay:10.37,2013-04-22 00:47:00,
2013-04-21 17:50:00,86.7,40.8,29.97,SSW,200,1.2,0.0,20,0.00,SCT,,0.00,WeatherDisplay:10.37,2013-04-22 00:50:00,
2013-04-21 17:52:00,86.7,40.8,29.97,SW,224,2.0,2.0,20,0.00,SCT,,0.00,WeatherDisplay:10.37,2013-04-22 00:52:00,
2013-04-21 17:53:00,86.6,40.7,29.97,SW,217,1.2,1.2,20,0.00,SCT,,0.00,WeatherDisplay:10.37,2013-04-22 00:53:00,
2013-04-21 17:56:00,86.3,39.2,29.98,SW,229,1.2,1.2,19,0.00,SCT,,0.00,WeatherDisplay:10.37,2013-04-22 00:56:00,
2013-04-21 17:57:00,86.2,40.4,29.98,SW,220,1.2,1.2,20,0.00,SCT,,0.00,WeatherDisplay:10.37,2013-04-22 00:57:00,
2013-04-21 17:58:00,86.2,39.1,29.97,SW,220,1.2,1.2,19,0.00,SCT,,0.00,WeatherDisplay:10.37,2013-04-22 00:58:00,
2013-04-21 18:00:00,86.0,40.2,29.97,SW,219,1.0,1.0,20,0.00,SCT,,0.00,WeatherDisplay:10.37,2013-04-22 01:00:00,
2013-04-21 18:01:00,86.0,40.2,29.98,SSW,205,3.0,3.0,20,0.00,SCT,,0.00,WeatherDisplay:10.37,2013-04-22 01:01:00,
2013-04-21 18:02:00,86.1,40.3,29.98,SSW,192,3.5,3.5,20,0.00,SCT,,0.00,WeatherDisplay:10.37,2013-04-22 01:02:00,
2013-04-21 18:04:00,86.2,40.4,29.97,SSW,192,1.2,1.2,20,0.00,SCT,,0.00,WeatherDisplay:10.37,2013-04-22 01:04:00,
2013-04-21 18:07:00,86.3,40.5,29.97,SSW,195,1.2,1.2,20,0.00,SCT,,0.00,WeatherDisplay:10.37,2013-04-22 01:07:00,
2013-04-21 18:09:00,86.4,40.6,29.97,South,178,1.2,0.0,20,0.00,SCT,,0.00,WeatherDisplay:10.37,2013-04-22 01:09:00,
2013-04-21 18:10:00,86.4,39.3,29.97,South,178,0.0,0.0,19,0.00,SCT,,0.00,WeatherDisplay:10.37,2013-04-22 01:10:00,
2013-04-21 18:12:00,86.4,40.6,29.97,South,178,1.2,1.2,20,0.00,SCT,,0.00,WeatherDisplay:10.37,2013-04-22 01:12:00,
2013-04-21 18:13:00,86.4,40.6,29.97,South,178,1.2,0.0,20,0.00,SCT,,0.00,WeatherDisplay:10.37,2013-04-22 01:13:00,
2013-04-21 18:14:00,86.4,39.3,29.97,South,178,0.0,0.0,19,0.00,SCT,,0.00,WeatherDisplay:10.37,2013-04-22 01:14:00,
2013-04-21 18:16:00,86.5,41.9,29.97,South,179,0.0,0.0,21,0.00,SCT,,0.00,WeatherDisplay:10.37,2013-04-22 01:16:00,
2013-04-21 18:18:00,86.5,44.3,29.97,South,188,0.0,0.0,23,0.00,SCT,,0.00,WeatherDisplay:10.37,2013-04-22 01:18:00,
2013-04-21 18:19:00,86.5,44.3,29.97,South,188,0.0,0.0,23,0.00,SCT,,0.00,WeatherDisplay:10.37,2013-04-22 01:19:00,
2013-04-21 18:20:00,86.5,44.3,29.97,South,184,0.0,2.0,23,0.00,SCT,,0.00,WeatherDisplay:10.37,2013-04-22 01:20:00,
2013-04-21 18:21:00,86.5,44.3,29.97,SE,129,1.0,1.0,23,0.00,SCT,,0.00,WeatherDisplay:10.37,2013-04-22 01:21:00,
2013-04-21 18:24:00,86.2,45.2,29.97,SE,143,3.5,3.5,24,0.00,SCT,,0.00,WeatherDisplay:10.37,2013-04-22 01:24:00,
2013-04-21 18:25:00,86.1,45.1,29.97,ESE,120,1.2,1.2,24,0.00,SCT,,0.00,WeatherDisplay:10.37,2013-04-22 01:25:00,
2013-04-21 18:26:00,86.1,45.1,29.97,SSE,152,2.0,2.0,24,0.00,SCT,,0.00,WeatherDisplay:10.37,2013-04-22 01:26:00,
2013-04-21 18:29:00,85.8,44.8,29.97,ESE,118,4.6,4.6,24,0.00,SCT,,0.00,WeatherDisplay:10.37,2013-04-22 01:29:00,
2013-04-21 18:30:00,85.8,44.8,29.97,ESE,118,3.5,3.5,24,0.00,SCT,,0.00,WeatherDisplay:10.37,2013-04-22 01:30:00,
2013-04-21 18:31:00,85.8,44.8,29.97,SE,133,1.2,1.2,24,0.00,SCT,,0.00,WeatherDisplay:10.37,2013-04-22 01:31:00,
2013-04-21 18:32:00,85.7,44.7,29.97,ESE,120,1.2,1.2,24,0.00,SCT,,0.00,WeatherDisplay:10.37,2013-04-22 01:32:00,
2013-04-21 18:35:00,85.6,45.7,29.97,South,181,0.0,0.0,25,0.00,SCT,,0.00,WeatherDisplay:10.37,2013-04-22 01:35:00,
2013-04-21 18:36:00,85.5,45.7,29.97,SE,126,5.0,5.0,25,0.00,SCT,,0.00,WeatherDisplay:10.37,2013-04-22 01:36:00,
2013-04-21 18:37:00,85.5,45.7,29.97,SSE,150,4.6,4.6,25,0.00,SCT,,0.00,WeatherDisplay:10.37,2013-04-22 01:37:00,
2013-04-21 18:41:00,85.2,45.4,29.97,SE,131,1.2,0.0,25,0.00,SCT,,0.00,WeatherDisplay:10.37,2013-04-22 01:41:00,
2013-04-21 18:42:00,85.1,45.3,29.97,ESE,123,0.0,0.4,25,0.00,SCT,,0.00,WeatherDisplay:10.37,2013-04-22 01:42:00,
2013-04-21 18:43:00,85.0,46.3,29.97,SE,127,2.3,2.3,26,0.00,SCT,,0.00,WeatherDisplay:10.37,2013-04-22 01:43:00,
2013-04-21 18:46:00,84.9,46.2,29.97,East,93,2.3,0.0,26,0.00,SCT,,0.00,WeatherDisplay:10.37,2013-04-22 01:46:00,
2013-04-21 18:47:00,84.8,46.1,29.97,SE,126,3.0,3.0,26,0.00,SCT,,0.00,WeatherDisplay:10.37,2013-04-22 01:47:00,
2013-04-21 18:48:00,84.8,46.1,29.97,ESE,112,1.2,1.2,26,0.00,SCT,,0.00,WeatherDisplay:10.37,2013-04-22 01:48:00,
2013-04-21 18:49:00,84.7,45.0,29.97,ESE,110,2.3,2.3,25,0.00,SCT,,0.00,WeatherDisplay:10.37,2013-04-22 01:49:00,
2013-04-21 18:51:00,84.6,45.9,29.97,ESE,120,2.3,2.3,26,0.00,SCT,,0.00,WeatherDisplay:10.37,2013-04-22 01:51:00,
2013-04-21 18:53:00,84.5,45.8,29.97,ESE,122,6.9,6.9,26,0.00,SCT,,0.00,WeatherDisplay:10.37,2013-04-22 01:53:00,
2013-04-21 18:54:00,84.4,45.8,29.97,SE,131,4.6,4.6,26,0.00,SCT,,0.00,WeatherDisplay:10.37,2013-04-22 01:54:00,
2013-04-21 18:56:00,84.3,45.7,29.97,South,171,1.2,1.2,26,0.00,SCT,,0.00,WeatherDisplay:10.37,2013-04-22 01:56:00,
2013-04-21 18:59:00,84.2,45.6,29.97,ESE,116,3.5,3.5,26,0.00,SCT,,0.00,WeatherDisplay:10.37,2013-04-22 01:59:00,
2013-04-21 19:00:00,84.2,45.6,29.97,ESE,116,3.5,0.0,26,0.00,SCT,,0.00,WeatherDisplay:10.37,2013-04-22 02:00:00,
2013-04-21 19:01:00,84.1,45.5,29.97,ESE,117,3.0,3.0,26,0.00,SCT,,0.00,WeatherDisplay:10.37,2013-04-22 02:01:00,
2013-04-21 19:02:00,84.0,46.4,29.97,ESE,113,2.3,2.3,27,0.00,SCT,,0.00,WeatherDisplay:10.37,2013-04-22 02:02:00,
2013-04-21 19:05:00,83.9,46.3,29.97,SE,131,0.0,3.0,27,0.00,SCT,,0.00,WeatherDisplay:10.37,2013-04-22 02:05:00,
2013-04-21 19:06:00,83.7,46.2,29.97,SE,135,0.0,0.4,27,0.00,SCT,,0.00,WeatherDisplay:10.37,2013-04-22 02:06:00,
2013-04-21 19:07:00,83.6,46.1,29.97,SE,136,0.0,0.4,27,0.00,SCT,,0.00,WeatherDisplay:10.37,2013-04-22 02:07:00,
2013-04-21 19:10:00,83.4,45.9,29.96,SE,136,0.0,0.0,27,0.00,SCT,,0.00,WeatherDisplay:10.37,2013-04-22 02:10:00,
2013-04-21 19:11:00,83.4,45.9,29.96,SE,136,0.0,0.0,27,0.00,SCT,,0.00,WeatherDisplay:10.37,2013-04-22 02:11:00,
2013-04-21 19:12:00,83.4,45.9,29.96,SE,136,0.0,0.0,27,0.00,SCT,,0.00,WeatherDisplay:10.37,2013-04-22 02:12:00,
2013-04-21 19:14:00,83.3,45.8,29.96,SE,136,0.0,0.0,27,0.00,SCT,,0.00,WeatherDisplay:10.37,2013-04-22 02:14:00,
2013-04-21 19:17:00,83.2,45.7,29.97,SE,137,0.0,0.0,27,0.00,SCT,,0.00,WeatherDisplay:10.37,2013-04-22 02:17:00,
2013-04-21 19:18:00,83.1,45.7,29.97,SE,137,1.2,0.0,27,0.00,SCT,,0.00,WeatherDisplay:10.37,2013-04-22 02:18:00,
2013-04-21 19:20:00,83.0,45.6,29.96,SE,137,0.0,0.0,27,0.00,SCT,,0.00,WeatherDisplay:10.37,2013-04-22 02:20:00,
2013-04-21 19:22:00,82.8,45.4,29.97,SE,137,0.0,0.0,27,0.00,SCT,,0.00,WeatherDisplay:10.37,2013-04-22 02:22:00,
2013-04-21 19:23:00,82.8,45.4,29.96,SE,137,0.0,0.0,27,0.00,SCT,,0.00,WeatherDisplay:10.37,2013-04-22 02:23:00,
2013-04-21 19:24:00,82.8,45.4,29.97,SE,137,0.0,0.0,27,0.00,SCT,,0.00,WeatherDisplay:10.37,2013-04-22 02:24:00,
2013-04-21 19:25:00,82.7,45.3,29.97,SE,137,0.0,1.0,27,0.00,SCT,,0.00,WeatherDisplay:10.37,2013-04-22 02:25:00,
2013-04-21 19:26:00,82.6,45.2,29.97,SE,137,1.0,1.0,27,0.00,SCT,,0.00,WeatherDisplay:10.37,2013-04-22 02:26:00,
2013-04-21 19:27:00,82.5,45.1,29.97,SE,137,1.2,1.2,27,0.00,SCT,,0.00,WeatherDisplay:10.37,2013-04-22 02:27:00,
2013-04-21 19:29:00,82.5,45.1,29.97,SE,137,0.0,0.0,27,0.00,SCT,,0.00,WeatherDisplay:10.37,2013-04-22 02:29:00,
2013-04-21 19:30:00,82.4,45.1,29.97,SE,137,0.0,0.0,27,0.00,SCT,,0.00,WeatherDisplay:10.37,2013-04-22 02:30:00,
2013-04-21 19:32:00,82.3,45.0,29.97,SE,137,0.0,0.0,27,0.00,SCT,,0.00,WeatherDisplay:10.37,2013-04-22 02:32:00,
2013-04-21 19:33:00,82.2,44.9,29.97,SE,137,0.0,0.0,27,0.00,SCT,,0.00,WeatherDisplay:10.37,2013-04-22 02:33:00,
2013-04-21 19:34:00,82.1,44.8,29.97,SE,137,0.0,0.0,27,0.00,SCT,,0.00,WeatherDisplay:10.37,2013-04-22 02:34:00,
2013-04-21 19:36:00,81.9,45.6,29.97,SE,137,0.0,0.0,28,0.00,SCT,,0.00,WeatherDisplay:10.37,2013-04-22 02:36:00,
2013-04-21 19:37:00,81.8,45.5,29.97,SE,137,0.0,0.0,28,0.00,SCT,,0.00,WeatherDisplay:10.37,2013-04-22 02:37:00,
2013-04-21 19:38:00,81.7,45.4,29.97,SE,137,0.0,0.0,28,0.00,SCT,,0.00,WeatherDisplay:10.37,2013-04-22 02:38:00,
2013-04-21 19:39:00,81.6,46.3,29.96,SE,137,0.0,0.0,29,0.00,SCT,,0.00,WeatherDisplay:10.37,2013-04-22 02:39:00,
2013-04-21 19:40:00,81.6,45.3,29.97,SE,137,0.0,0.0,28,0.00,SCT,,0.00,WeatherDisplay:10.37,2013-04-22 02:40:00,
2013-04-21 19:42:00,81.4,46.1,29.96,SE,137,0.0,0.0,29,0.00,SCT,,0.00,WeatherDisplay:10.37,2013-04-22 02:42:00,
2013-04-21 19:43:00,81.3,46.0,29.97,SE,137,0.0,0.1,29,0.00,SCT,,0.00,WeatherDisplay:10.37,2013-04-22 02:43:00,
2013-04-21 19:45:00,81.2,45.9,29.97,SE,137,0.0,1.0,29,0.00,SCT,,0.00,WeatherDisplay:10.37,2013-04-22 02:45:00,
2013-04-21 19:46:00,81.2,45.9,29.97,SE,140,1.2,0.0,29,0.00,SCT,,0.00,WeatherDisplay:10.37,2013-04-22 02:46:00,
2013-04-21 19:47:00,81.0,46.6,29.97,SE,140,0.0,0.0,30,0.00,SCT,,0.00,WeatherDisplay:10.37,2013-04-22 02:47:00,
2013-04-21 19:48:00,80.9,45.7,29.97,SE,140,0.0,0.0,29,0.00,SCT,,0.00,WeatherDisplay:10.37,2013-04-22 02:48:00,
2013-04-21 19:51:00,80.7,46.4,29.97,SE,140,1.2,1.2,30,0.00,SCT,,0.00,WeatherDisplay:10.37,2013-04-22 02:51:00,
2013-04-21 19:52:00,80.5,46.2,29.97,SE,140,0.0,0.0,30,0.00,SCT,,0.00,WeatherDisplay:10.37,2013-04-22 02:52:00,
2013-04-21 19:53:00,80.3,46.0,29.97,SE,140,0.0,0.0,30,0.00,SCT,,0.00,WeatherDisplay:10.37,2013-04-22 02:53:00,
2013-04-21 19:56:00,80.1,45.9,29.97,SSE,157,1.0,1.0,30,0.00,SCT,,0.00,WeatherDisplay:10.37,2013-04-22 02:56:00,
2013-04-21 19:57:00,80.0,45.8,29.97,South,170,1.2,1.2,30,0.00,SCT,,0.00,WeatherDisplay:10.37,2013-04-22 02:57:00,
2013-04-21 19:58:00,79.8,45.6,29.97,South,170,0.0,0.1,30,0.00,SCT,,0.00,WeatherDisplay:10.37,2013-04-22 02:58:00,
2013-04-21 19:59:00,79.8,45.6,29.97,South,170,0.0,0.1,30,0.00,SCT,,0.00,WeatherDisplay:10.37,2013-04-22 02:59:00,
2013-04-21 20:02:00,79.5,45.3,29.97,South,170,0.0,0.0,30,0.00,SCT,,0.00,WeatherDisplay:10.37,2013-04-22 03:02:00,
2013-04-21 20:03:00,79.5,45.3,29.97,South,170,0.0,0.0,30,0.00,SCT,,0.00,WeatherDisplay:10.37,2013-04-22 03:03:00,
2013-04-21 20:04:00,79.4,45.3,29.97,South,170,0.0,0.0,30,0.00,SCT,,0.00,WeatherDisplay:10.37,2013-04-22 03:04:00,
2013-04-21 20:06:00,79.3,45.2,29.97,SSE,159,1.2,1.2,30,0.00,SCT,,0.00,WeatherDisplay:10.37,2013-04-22 03:06:00,
2013-04-21 20:08:00,79.2,45.1,29.97,SW,221,0.0,0.0,30,0.00,SCT,,0.00,WeatherDisplay:10.37,2013-04-22 03:08:00,
2013-04-21 20:09:00,79.0,44.9,29.97,SW,221,0.0,0.0,30,0.00,SCT,,0.00,WeatherDisplay:10.37,2013-04-22 03:09:00,
2013-04-21 20:11:00,78.7,44.7,29.98,SW,221,0.0,0.0,30,0.00,SCT,,0.00,WeatherDisplay:10.37,2013-04-22 03:11:00,
2013-04-21 20:13:00,78.4,45.3,29.97,SW,224,2.0,2.0,31,0.00,SCT,,0.00,WeatherDisplay:10.37,2013-04-22 03:13:00,
2013-04-21 20:14:00,78.2,45.1,29.98,SW,231,2.3,2.3,31,0.00,SCT,,0.00,WeatherDisplay:10.37,2013-04-22 03:14:00,
2013-04-21 20:17:00,77.7,44.6,29.98,SW,231,0.0,0.0,31,0.00,SCT,,0.00,WeatherDisplay:10.37,2013-04-22 03:17:00,
2013-04-21 20:18:00,77.6,44.6,29.98,SW,231,0.0,0.0,31,0.00,SCT,,0.00,WeatherDisplay:10.37,2013-04-22 03:18:00,
2013-04-21 20:19:00,77.5,44.5,29.98,SSE,167,0.0,0.0,31,0.00,SCT,,0.00,WeatherDisplay:10.37,2013-04-22 03:19:00,
2013-04-21 20:21:00,77.3,44.3,29.98,SSE,164,0.0,0.0,31,0.00,SCT,,0.00,WeatherDisplay:10.37,2013-04-22 03:21:00,
2013-04-21 20:23:00,77.1,45.0,29.98,South,172,1.2,0.0,32,0.00,SCT,,0.00,WeatherDisplay:10.37,2013-04-22 03:23:00,
2013-04-21 20:24:00,77.0,44.0,29.98,South,182,1.2,1.2,31,0.00,SCT,,0.00,WeatherDisplay:10.37,2013-04-22 03:24:00,
2013-04-21 20:26:00,76.9,44.0,29.98,South,183,1.2,0.0,31,0.00,SCT,,0.00,WeatherDisplay:10.37,2013-04-22 03:26:00,
2013-04-21 20:28:00,76.7,44.6,29.98,South,183,0.0,0.0,32,0.00,SCT,,0.00,WeatherDisplay:10.37,2013-04-22 03:28:00,
2013-04-21 20:29:00,76.6,44.5,29.98,South,183,0.0,0.0,32,0.00,SCT,,0.00,WeatherDisplay:10.37,2013-04-22 03:29:00,
2013-04-21 20:30:00,76.7,44.6,29.98,South,183,0.0,0.0,32,0.00,SCT,,0.00,WeatherDisplay:10.37,2013-04-22 03:30:00,
2013-04-21 20:32:00,76.7,43.8,29.98,SW,223,0.0,0.3,31,0.00,SCT,,0.00,WeatherDisplay:10.37,2013-04-22 03:32:00,
2013-04-21 20:34:00,76.7,43.8,29.98,SW,223,1.2,0.0,31,0.00,SCT,,0.00,WeatherDisplay:10.37,2013-04-22 03:34:00,
2013-04-21 20:35:00,76.7,43.8,29.98,SW,223,0.0,0.0,31,0.00,SCT,,0.00,WeatherDisplay:10.37,2013-04-22 03:35:00,
2013-04-21 20:36:00,76.7,43.8,29.98,SW,223,0.0,0.0,31,0.00,SCT,,0.00,WeatherDisplay:10.37,2013-04-22 03:36:00,
2013-04-21 20:39:00,76.7,43.8,29.98,SW,223,0.0,0.0,31,0.00,SCT,,0.00,WeatherDisplay:10.37,2013-04-22 03:39:00,
2013-04-21 20:40:00,76.7,43.8,29.98,SW,221,1.2,1.2,31,0.00,SCT,,0.00,WeatherDisplay:10.37,2013-04-22 03:40:00,
2013-04-21 20:41:00,76.6,43.7,29.99,SW,221,1.2,1.2,31,0.00,SCT,,0.00,WeatherDisplay:10.37,2013-04-22 03:41:00,
2013-04-21 20:42:00,76.6,44.5,29.98,SW,221,0.0,0.0,32,0.00,SCT,,0.00,WeatherDisplay:10.37,2013-04-22 03:42:00,
2013-04-21 20:45:00,76.5,44.4,29.98,SW,221,0.0,0.0,32,0.00,SCT,,0.00,WeatherDisplay:10.37,2013-04-22 03:45:00,
2013-04-21 20:46:00,76.4,44.4,29.99,SW,220,0.0,0.0,32,0.00,SCT,,0.00,WeatherDisplay:10.37,2013-04-22 03:46:00,
2013-04-21 20:47:00,76.3,44.3,29.98,SW,220,0.0,0.0,32,0.00,SCT,,0.00,WeatherDisplay:10.37,2013-04-22 03:47:00,
2013-04-21 20:48:00,76.2,44.2,29.98,SW,220,0.0,0.0,32,0.00,SCT,,0.00,WeatherDisplay:10.37,2013-04-22 03:48:00,
2013-04-21 20:50:00,76.1,44.1,29.98,SW,220,0.0,0.0,32,0.00,SCT,,0.00,WeatherDisplay:10.37,2013-04-22 03:50:00,
2013-04-21 20:51:00,76.1,44.1,29.99,SSW,197,1.2,1.2,32,0.00,SCT,,0.00,WeatherDisplay:10.37,2013-04-22 03:51:00,
2013-04-21 20:52:00,76.1,44.1,29.98,SSW,197,0.0,0.0,32,0.00,SCT,,0.00,WeatherDisplay:10.37,2013-04-22 03:52:00,
2013-04-21 20:53:00,76.1,44.1,29.99,SSW,197,0.0,0.0,32,0.00,SCT,,0.00,WeatherDisplay:10.37,2013-04-22 03:53:00,
2013-04-21 20:55:00,76.0,44.0,29.98,SSW,197,0.0,0.0,32,0.00,SCT,,0.00,WeatherDisplay:10.37,2013-04-22 03:55:00,
2013-04-21 20:57:00,75.9,43.9,29.99,SSW,197,0.0,0.0,32,0.00,SCT,,0.00,WeatherDisplay:10.37,2013-04-22 03:57:00,
2013-04-21 20:58:00,75.9,44.7,29.99,SSW,197,0.0,0.0,33,0.00,SCT,,0.00,WeatherDisplay:10.37,2013-04-22 03:58:00,
2013-04-21 21:01:00,75.8,44.6,29.99,SSW,197,0.0,0.0,33,0.00,SCT,,0.00,WeatherDisplay:10.37,2013-04-22 04:01:00,
2013-04-21 21:02:00,75.8,44.6,29.99,SSW,197,0.0,0.0,33,0.00,SCT,,0.00,WeatherDisplay:10.37,2013-04-22 04:02:00,
2013-04-21 21:03:00,75.7,44.5,29.99,SSW,197,0.0,0.0,33,0.00,SCT,,0.00,WeatherDisplay:10.37,2013-04-22 04:03:00,
2013-04-21 21:06:00,75.6,44.5,29.99,SSW,197,1.2,1.2,33,0.00,SCT,,0.00,WeatherDisplay:10.37,2013-04-22 04:06:00,
2013-04-21 21:07:00,75.6,44.5,29.99,SE,144,1.2,1.2,33,0.00,SCT,,0.00,WeatherDisplay:10.37,2013-04-22 04:07:00,
2013-04-21 21:09:00,75.5,44.4,29.99,SE,138,0.0,0.0,33,0.00,SCT,,0.00,WeatherDisplay:10.37,2013-04-22 04:09:00,
2013-04-21 21:12:00,75.3,44.2,29.99,SE,133,1.0,1.0,33,0.00,SCT,,0.00,WeatherDisplay:10.37,2013-04-22 04:12:00,
2013-04-21 21:15:00,75.1,44.0,29.99,SSE,157,1.2,0.0,33,0.00,SCT,,0.00,WeatherDisplay:10.37,2013-04-22 04:15:00,
2013-04-21 21:17:00,74.9,43.8,29.99,ESE,113,1.2,0.0,33,0.00,SCT,,0.00,WeatherDisplay:10.37,2013-04-22 04:17:00,
2013-04-21 21:18:00,74.9,43.8,30.00,ESE,113,1.2,0.0,33,0.00,SCT,,0.00,WeatherDisplay:10.37,2013-04-22 04:18:00,
2013-04-21 21:20:00,74.8,43.8,30.00,ESE,112,0.0,0.0,33,0.00,SCT,,0.00,WeatherDisplay:10.37,2013-04-22 04:20:00,
2013-04-21 21:22:00,74.7,43.7,29.99,ESE,108,1.2,0.0,33,0.00,SCT,,0.00,WeatherDisplay:10.37,2013-04-22 04:22:00,
2013-04-21 21:23:00,74.7,43.7,29.99,ESE,108,0.0,0.0,33,0.00,SCT,,0.00,WeatherDisplay:10.37,2013-04-22 04:23:00,
2013-04-21 21:26:00,74.6,43.6,30.00,ESE,108,0.0,0.0,33,0.00,SCT,,0.00,WeatherDisplay:10.37,2013-04-22 04:26:00,
2013-04-21 21:28:00,74.5,43.5,30.00,ESE,108,0.0,0.0,33,0.00,SCT,,0.00,WeatherDisplay:10.37,2013-04-22 04:28:00,
2013-04-21 21:29:00,74.4,43.4,30.00,ESE,108,0.0,0.0,33,0.00,SCT,,0.00,WeatherDisplay:10.37,2013-04-22 04:29:00,
2013-04-21 21:31:00,74.3,43.3,30.00,SSE,159,2.3,2.3,33,0.00,SCT,,0.00,WeatherDisplay:10.37,2013-04-22 04:31:00,
2013-04-21 21:32:00,74.3,43.3,30.00,SSE,163,2.3,2.3,33,0.00,SCT,,0.00,WeatherDisplay:10.37,2013-04-22 04:32:00,
2013-04-21 21:34:00,74.1,43.1,30.00,South,175,0.0,0.0,33,0.00,SCT,,0.00,WeatherDisplay:10.37,2013-04-22 04:34:00,
2013-04-21 21:35:00,74.1,43.1,30.00,ESE,121,0.0,2.0,33,0.00,SCT,,0.00,WeatherDisplay:10.37,2013-04-22 04:35:00,
2013-04-21 21:37:00,73.8,42.9,30.00,SSW,198,1.0,1.0,33,0.00,SCT,,0.00,WeatherDisplay:10.37,2013-04-22 04:37:00,
2013-04-21 21:38:00,73.7,42.8,30.00,SSE,165,2.3,2.3,33,0.00,SCT,,0.00,WeatherDisplay:10.37,2013-04-22 04:38:00,
2013-04-21 21:39:00,73.7,42.8,30.00,SSE,164,2.3,2.3,33,0.00,SCT,,0.00,WeatherDisplay:10.37,2013-04-22 04:39:00,
2013-04-21 21:40:00,73.6,42.7,30.00,WSW,243,1.2,1.2,33,0.00,SCT,,0.00,WeatherDisplay:10.37,2013-04-22 04:40:00,
2013-04-21 21:42:00,73.4,42.5,30.00,WSW,246,0.0,0.0,33,0.00,SCT,,0.00,WeatherDisplay:10.37,2013-04-22 04:42:00,
2013-04-21 21:44:00,73.3,42.4,30.00,WSW,246,0.0,0.0,33,0.00,SCT,,0.00,WeatherDisplay:10.37,2013-04-22 04:44:00,
2013-04-21 21:45:00,73.3,42.5,30.00,SW,225,0.0,1.0,33,0.00,SCT,,0.00,WeatherDisplay:10.37,2013-04-22 04:45:00,
2013-04-21 21:46:00,73.2,42.4,30.00,WSW,246,0.0,0.0,33,0.00,SCT,,0.00,WeatherDisplay:10.37,2013-04-22 04:46:00,
2013-04-21 21:47:00,73.1,42.3,30.00,SW,214,0.0,0.0,33,0.00,SCT,,0.00,WeatherDisplay:10.37,2013-04-22 04:47:00,
2013-04-21 21:49:00,73.0,42.2,30.00,SE,145,0.0,0.0,33,0.00,SCT,,0.00,WeatherDisplay:10.37,2013-04-22 04:49:00,
2013-04-21 21:50:00,73.0,42.2,30.00,SE,145,0.0,0.0,33,0.00,SCT,,0.00,WeatherDisplay:10.37,2013-04-22 04:50:00,
2013-04-21 21:51:00,72.9,42.1,30.00,SE,145,0.0,0.0,33,0.00,SCT,,0.00,WeatherDisplay:10.37,2013-04-22 04:51:00,
2013-04-21 21:53:00,72.8,42.0,30.00,SE,145,0.0,0.0,33,0.00,SCT,,0.00,WeatherDisplay:10.37,2013-04-22 04:53:00,
2013-04-21 21:55:00,72.6,41.8,30.00,SSW,196,0.0,0.6,33,0.00,SCT,,0.00,WeatherDisplay:10.37,2013-04-22 04:55:00,
2013-04-21 21:56:00,72.6,41.8,30.00,SSW,197,3.5,0.0,33,0.00,SCT,,0.00,WeatherDisplay:10.37,2013-04-22 04:56:00,
2013-04-21 21:58:00,72.6,41.8,30.00,SSW,197,0.0,0.0,33,0.00,SCT,,0.00,WeatherDisplay:10.37,2013-04-22 04:58:00,
2013-04-21 22:00:00,72.3,41.6,30.00,SSW,197,2.3,2.3,33,0.00,SCT,,0.00,WeatherDisplay:10.37,2013-04-22 05:00:00,
2013-04-21 22:01:00,72.2,41.5,30.00,SSW,203,2.3,2.3,33,0.00,SCT,,0.00,WeatherDisplay:10.37,2013-04-22 05:01:00,
2013-04-21 22:02:00,72.2,41.5,30.00,SSW,203,0.0,0.0,33,0.00,SCT,,0.00,WeatherDisplay:10.37,2013-04-22 05:02:00,
2013-04-21 22:03:00,72.2,41.5,30.00,SSW,203,0.0,0.0,33,0.00,SCT,,0.00,WeatherDisplay:10.37,2013-04-22 05:03:00,
2013-04-21 22:06:00,72.0,41.3,30.01,SSW,203,0.0,0.0,33,0.00,SCT,,0.00,WeatherDisplay:10.37,2013-04-22 05:06:00,
2013-04-21 22:07:00,71.9,41.2,30.00,SSW,203,0.0,0.0,33,0.00,SCT,,0.00,WeatherDisplay:10.37,2013-04-22 05:07:00,
2013-04-21 22:08:00,71.9,41.2,30.00,SSW,203,0.0,0.0,33,0.00,SCT,,0.00,WeatherDisplay:10.37,2013-04-22 05:08:00,
2013-04-21 22:11:00,71.8,41.1,30.01,SSW,203,0.0,0.0,33,0.00,SCT,,0.00,WeatherDisplay:10.37,2013-04-22 05:11:00,
2013-04-21 22:12:00,71.8,41.1,30.00,SSW,203,0.0,0.0,33,0.00,SCT,,0.00,WeatherDisplay:10.37,2013-04-22 05:12:00,
2013-04-21 22:14:00,71.7,41.8,30.01,SSW,203,0.0,0.0,34,0.00,SCT,,0.00,WeatherDisplay:10.37,2013-04-22 05:14:00,
2013-04-21 22:17:00,71.6,41.7,30.00,SSW,203,0.0,0.0,34,0.00,SCT,,0.00,WeatherDisplay:10.37,2013-04-22 05:17:00,
2013-04-21 22:18:00,71.6,41.7,30.00,SSW,203,0.0,0.0,34,0.00,SCT,,0.00,WeatherDisplay:10.37,2013-04-22 05:18:00,
2013-04-21 22:19:00,71.6,41.7,30.00,SSW,203,0.0,0.0,34,0.00,SCT,,0.00,WeatherDisplay:10.37,2013-04-22 05:19:00,
2013-04-21 22:23:00,71.3,41.5,30.00,SSW,203,0.0,0.0,34,0.00,SCT,,0.00,WeatherDisplay:10.37,2013-04-22 05:23:00,
2013-04-21 22:24:00,71.3,41.5,30.00,SSW,203,0.0,0.0,34,0.00,SCT,,0.00,WeatherDisplay:10.37,2013-04-22 05:24:00,
2013-04-21 22:25:00,71.3,41.5,30.00,SSW,203,0.0,0.0,34,0.00,SCT,,0.00,WeatherDisplay:10.37,2013-04-22 05:25:00,
2013-04-21 22:29:00,71.1,42.0,30.00,SSW,203,0.0,0.0,35,0.00,SCT,,0.00,WeatherDisplay:10.37,2013-04-22 05:29:00,
2013-04-21 22:30:00,71.1,42.0,30.00,SSW,203,0.0,0.0,35,0.00,SCT,,0.00,WeatherDisplay:10.37,2013-04-22 05:30:00,
2013-04-21 22:31:00,71.1,42.0,30.00,SSW,203,0.0,0.0,35,0.00,SCT,,0.00,WeatherDisplay:10.37,2013-04-22 05:31:00,
2013-04-21 22:34:00,70.9,42.6,30.01,SSW,203,0.0,0.0,36,0.00,SCT,,0.00,WeatherDisplay:10.37,2013-04-22 05:34:00,
2013-04-21 22:35:00,70.9,42.6,30.00,SSW,203,0.0,0.0,36,0.00,SCT,,0.00,WeatherDisplay:10.37,2013-04-22 05:35:00,
2013-04-21 22:36:00,70.9,42.6,30.00,SSW,203,0.0,0.0,36,0.00,SCT,,0.00,WeatherDisplay:10.37,2013-04-22 05:36:00,
2013-04-21 22:39:00,70.8,42.5,30.00,SSW,203,0.0,0.0,36,0.00,SCT,,0.00,WeatherDisplay:10.37,2013-04-22 05:39:00,
2013-04-21 22:40:00,70.7,42.4,30.00,SSW,203,0.0,0.0,36,0.00,SCT,,0.00,WeatherDisplay:10.37,2013-04-22 05:40:00,
2013-04-21 22:41:00,70.6,42.3,30.00,SSW,203,0.0,0.0,36,0.00,SCT,,0.00,WeatherDisplay:10.37,2013-04-22 05:41:00,
2013-04-21 22:42:00,70.7,42.4,30.00,SSW,203,1.0,1.0,36,0.00,SCT,,0.00,WeatherDisplay:10.37,2013-04-22 05:42:00,
2013-04-21 22:44:00,70.5,43.0,30.00,SSW,203,0.0,0.0,37,0.00,SCT,,0.00,WeatherDisplay:10.37,2013-04-22 05:44:00,
2013-04-21 22:45:00,70.4,42.9,30.00,SSW,203,0.0,0.0,37,0.00,SCT,,0.00,WeatherDisplay:10.37,2013-04-22 05:45:00,
2013-04-21 22:46:00,70.4,42.9,30.01,SSW,203,0.0,0.0,37,0.00,SCT,,0.00,WeatherDisplay:10.37,2013-04-22 05:46:00,
2013-04-21 22:47:00,70.3,42.8,30.00,SSW,203,0.0,0.0,37,0.00,SCT,,0.00,WeatherDisplay:10.37,2013-04-22 05:47:00,
2013-04-21 22:49:00,70.2,42.7,30.01,SSW,203,0.0,0.0,37,0.00,SCT,,0.00,WeatherDisplay:10.37,2013-04-22 05:49:00,
2013-04-21 22:50:00,70.1,43.3,30.00,SSW,203,0.0,0.0,38,0.00,SCT,,0.00,WeatherDisplay:10.37,2013-04-22 05:50:00,
2013-04-21 22:51:00,70.0,43.2,30.00,SSW,203,0.0,0.0,38,0.00,SCT,,0.00,WeatherDisplay:10.37,2013-04-22 05:51:00,
2013-04-21 22:52:00,70.0,43.2,30.01,SSW,203,0.0,0.0,38,0.00,SCT,,0.00,WeatherDisplay:10.37,2013-04-22 05:52:00,
2013-04-21 22:53:00,70.0,43.2,30.00,SSW,203,0.0,0.0,38,0.00,SCT,,0.00,WeatherDisplay:10.37,2013-04-22 05:53:00,
2013-04-21 22:55:00,69.6,42.9,30.00,SSW,203,0.0,0.0,38,0.00,SCT,,0.00,WeatherDisplay:10.37,2013-04-22 05:55:00,
2013-04-21 22:57:00,69.6,42.9,30.01,SSW,203,0.0,0.0,38,0.00,SCT,,0.00,WeatherDisplay:10.37,2013-04-22 05:57:00,
2013-04-21 22:58:00,69.6,42.9,30.01,SSW,203,0.0,0.0,38,0.00,SCT,,0.00,WeatherDisplay:10.37,2013-04-22 05:58:00,
2013-04-21 23:01:00,69.6,43.5,30.00,SSW,203,0.0,0.0,39,0.00,SCT,,0.00,WeatherDisplay:10.37,2013-04-22 06:01:00,
2013-04-21 23:03:00,69.5,43.4,30.00,SSW,203,0.0,0.0,39,0.00,SCT,,0.00,WeatherDisplay:10.37,2013-04-22 06:03:00,
2013-04-21 23:04:00,69.5,43.4,30.00,SSW,203,0.0,0.0,39,0.00,SCT,,0.00,WeatherDisplay:10.37,2013-04-22 06:04:00,
2013-04-21 23:06:00,69.4,43.4,30.00,SSW,203,0.0,0.0,39,0.00,SCT,,0.00,WeatherDisplay:10.37,2013-04-22 06:06:00,
2013-04-21 23:08:00,69.2,43.2,30.00,SSW,203,0.0,0.0,39,0.00,SCT,,0.00,WeatherDisplay:10.37,2013-04-22 06:08:00,
2013-04-21 23:09:00,69.2,43.2,30.00,SSW,203,0.0,0.0,39,0.00,SCT,,0.00,WeatherDisplay:10.37,2013-04-22 06:09:00,
2013-04-21 23:11:00,69.0,43.7,30.00,SSW,203,0.0,0.0,40,0.00,SCT,,0.00,WeatherDisplay:10.37,2013-04-22 06:11:00,
2013-04-21 23:13:00,69.0,43.7,30.00,SSW,203,0.0,0.0,40,0.00,SCT,,0.00,WeatherDisplay:10.37,2013-04-22 06:13:00,
2013-04-21 23:14:00,69.0,43.7,30.00,SSW,203,0.0,0.0,40,0.00,SCT,,0.00,WeatherDisplay:10.37,2013-04-22 06:14:00,
2013-04-21 23:15:00,69.0,43.7,30.00,SSW,203,0.0,0.0,40,0.00,SCT,,0.00,WeatherDisplay:10.37,2013-04-22 06:15:00,
2013-04-21 23:17:00,68.9,43.6,30.00,SSW,203,0.0,0.0,40,0.00,SCT,,0.00,WeatherDisplay:10.37,2013-04-22 06:17:00,
2013-04-21 23:18:00,68.8,43.5,30.00,SSW,203,0.0,0.0,40,0.00,SCT,,0.00,WeatherDisplay:10.37,2013-04-22 06:18:00,
2013-04-21 23:20:00,68.8,43.5,30.00,SSW,203,0.0,0.0,40,0.00,SCT,,0.00,WeatherDisplay:10.37,2013-04-22 06:20:00,
2013-04-21 23:21:00,68.7,43.4,30.00,SSW,203,0.0,0.0,40,0.00,SCT,,0.00,WeatherDisplay:10.37,2013-04-22 06:21:00,
2013-04-21 23:22:00,68.7,43.4,30.00,SSW,203,0.0,0.0,40,0.00,SCT,,0.00,WeatherDisplay:10.37,2013-04-22 06:22:00,
2013-04-21 23:24:00,68.6,43.3,30.00,SSW,203,0.0,0.0,40,0.00,SCT,,0.00,WeatherDisplay:10.37,2013-04-22 06:24:00,
2013-04-21 23:26:00,68.5,43.2,30.00,SSW,203,0.0,0.0,40,0.00,SCT,,0.00,WeatherDisplay:10.37,2013-04-22 06:26:00,
2013-04-21 23:27:00,68.5,43.9,30.00,SSW,203,0.0,0.0,41,0.00,SCT,,0.00,WeatherDisplay:10.37,2013-04-22 06:27:00,
2013-04-21 23:29:00,68.4,43.1,30.00,SSW,203,0.0,0.0,40,0.00,SCT,,0.00,WeatherDisplay:10.37,2013-04-22 06:29:00,
2013-04-21 23:30:00,68.3,43.7,30.00,SSW,203,0.0,0.0,41,0.00,SCT,,0.00,WeatherDisplay:10.37,2013-04-22 06:30:00,
2013-04-21 23:32:00,68.2,43.6,30.01,SSW,203,0.0,0.0,41,0.00,SCT,,0.00,WeatherDisplay:10.37,2013-04-22 06:32:00,
2013-04-21 23:33:00,68.1,43.5,30.00,SSW,203,0.0,0.0,41,0.00,SCT,,0.00,WeatherDisplay:10.37,2013-04-22 06:33:00,
2013-04-21 23:35:00,68.0,43.4,30.00,SSW,203,0.0,0.0,41,0.00,SCT,,0.00,WeatherDisplay:10.37,2013-04-22 06:35:00,
2013-04-21 23:36:00,67.9,43.3,30.00,SSW,203,0.0,0.0,41,0.00,SCT,,0.00,WeatherDisplay:10.37,2013-04-22 06:36:00,
2013-04-21 23:37:00,67.9,43.3,30.00,SSW,203,0.0,0.0,41,0.00,SCT,,0.00,WeatherDisplay:10.37,2013-04-22 06:37:00,
2013-04-21 23:38:00,67.8,43.2,30.00,SSW,203,0.0,0.0,41,0.00,SCT,,0.00,WeatherDisplay:10.37,2013-04-22 06:38:00,
2013-04-21 23:41:00,67.7,43.1,30.00,SSW,203,0.0,0.0,41,0.00,SCT,,0.00,WeatherDisplay:10.37,2013-04-22 06:41:00,
2013-04-21 23:43:00,67.6,43.7,30.00,SSW,203,0.0,0.0,42,0.00,SCT,,0.00,WeatherDisplay:10.37,2013-04-22 06:43:00,
2013-04-21 23:46:00,67.4,43.5,30.00,SSW,203,0.0,0.0,42,0.00,SCT,,0.00,WeatherDisplay:10.37,2013-04-22 06:46:00,
2013-04-21 23:48:00,67.3,43.4,30.00,SSW,203,0.0,0.0,42,0.00,SCT,,0.00,WeatherDisplay:10.37,2013-04-22 06:48:00,
2013-04-21 23:49:00,67.3,43.4,30.00,SSW,203,0.0,0.0,42,0.00,SCT,,0.00,WeatherDisplay:10.37,2013-04-22 06:49:00,
2013-04-21 23:51:00,67.2,43.3,30.00,SSW,203,0.0,0.0,42,0.00,SCT,,0.00,WeatherDisplay:10.37,2013-04-22 06:51:00,
2013-04-21 23:52:00,67.1,43.2,30.00,SSW,203,0.0,0.0,42,0.00,SCT,,0.00,WeatherDisplay:10.37,2013-04-22 06:52:00,
2013-04-21 23:54:00,67.1,43.2,30.00,SSW,203,0.0,0.0,42,0.00,SCT,,0.00,WeatherDisplay:10.37,2013-04-22 06:54:00,
2013-04-21 23:56:00,67.1,43.2,30.00,SSW,203,0.0,0.0,42,0.00,SCT,,0.00,WeatherDisplay:10.37,2013-04-22 06:56:00,
2013-04-21 23:57:00,67.0,43.1,30.00,SSW,203,0.0,0.0,42,0.00,SCT,,0.00,WeatherDisplay:10.37,2013-04-22 06:57:00,
2013-04-21 23:58:00,67.0,43.1,30.01,SSW,203,0.0,0.0,42,0.00,SCT,,0.00,WeatherDisplay:10.37,2013-04-22 06:58:00,
2013-04-21 23:59:00,66.8,43.0,30.00,SSW,203,0.0,0.0,42,0.00,SCT,,0.00,WeatherDisplay:10.37,2013-04-22 06:59:00,